                ,  0.671,  0.819,  0.966,  1.114,  1.262,  1.410,  1.558,  1.705,  1.853,  2.001,  2.149,  2.297,  2.445,  2.592,  2.740,  2.888,  3.036,  3.184,  3.331,  3.479,  3.627,  3.775,  3.923,  4.070,  4.218,  4.366,  4.514,  4.662,  4.809,  4.957,  5.105,  5.253,  5.401,  5.549,  5.696,  5.844,  5.992,  6.140,  6.288,  6.435,  6.583,  6.731,  6.879,  7.027,  7.174,  7.322,  7.470,  7.618,  7.766,  7.914,  8.061,  8.209,  8.357,  8.505,  8.653,  8.800,  8.948,  9.096,  9.244,  9.392,  9.539,  9.687,  9.835
2005/08/23 00:00,  999.0,  999.0,    2.7,  999.0,    4.2,    3.6,  999.0,  999.0,  999.0,  999.0,  999.0,  999.0,  999.0,  999.0,    4.5,    3.9,    3.8,    3.9,    7.1,   -3.3,  999.0,  999.0,   -5.9,  999.0,   -6.8,  999.0,   -6.6,  999.0,  999.0,  999.0,  999.0,  999.0,  999.0,  999.0,  999.0,  999.0,  999.0,  999.0,   54.9,   55.2,   55.0,   27.6,   27.4,   27.5,   13.7,   41.5,  999.0,   -0.0,  999.0,  999.0,  999.0,  999.0,  999.0,  999.0,  999.0,  999.0,  999.0,  999.0,  999.0,  999.0,  999.0,  999.0,  999.0
2005/08/23 00:10,  999.0,    2.3,    2.7,    3.3,    4.3,    2.0,    1.7,    4.6,  999.0,  999.0,  999.0,  999.0,    6.1,    7.1,    7.3,    7.5,  999.0,    8.3,    7.8,    8.8,   10.0,  999.0,    7.0,    7.4,    7.7,  999.0,    8.9,  999.0,  999.0,  999.0,  999.0,  999.0,  999.0,  999.0,  999.0,  999.0,   55.1,  999.0,   55.1,   55.1,   55.1,   55.3,   55.3,  999.0,  999.0,  999.0,  999.0,  999.0,  999.0,  999.0,  999.0,   11.7,   12.6,   13.2,   13.0,   13.2,   14.3,   15.0,   15.0,  999.0,  999.0,  999.0,  999.0
2005/08/23 00:20,  999.0,    2.5,    2.3,    2.0,    2.8,    2.2,    2.1,    3.3,    5.2,    4.3,  999.0,  999.0,    5.7,    6.2,    7.3,    7.3,    7.7,    8.6,    8.4,    9.7,   10.3,   10.1,    7.6,    7.7,    8.5,    9.1,  999.0,  999.0,  999.0,  999.0,  999.0,  999.0,  999.0,  999.0,  999.0,  999.0,   55.1,   55.2,   55.1,   55.2,   55.2,   55.2,  999.0,  999.0,  999.0,  999.0,   28.2,   28.6,   25.7,   17.5,   11.7,   22.7,   12.7,   13.8,   13.4,   12.9,  999.0,  999.0,  999.0,  999.0,  999.0,  999.0,  999.0
2005/08/23 00:30,  999.0,  999.0,    2.7,    4.1,    3.4,    1.5,    2.6,    2.5,    3.1,    3.3,    3.6,    2.8,    5.4,    5.9,    6.1,    6.9,    7.3,    7.7,    7.9,  999.0,  999.0,  999.0,    8.7,  999.0,  999.0,  999.0,  999.0,  999.0,  999.0,  999.0,  999.0,  999.0,  999.0,  999.0,  999.0,  999.0,   55.1,   55.1,   55.1,   55.1,   55.2,   55.1,   55.1,   55.2,   55.2,   55.1,   55.1,   55.0,   55.4,   55.3,   55.1,  999.0,  999.0,  999.0,  999.0,  999.0,  999.0,  999.0,  999.0,  999.0,  999.0,  999.0,  999.0
2005/08/23 00:40,  999.0,    5.6,    4.9,    3.7,  999.0,    3.6,    3.3,    4.0,    5.3,    4.5,    4.1,    3.8,    5.3,    6.7,    7.1,    7.4,    7.7,    8.1,  999.0,   10.4,  999.0,  999.0,  999.0,  999.0,  999.0,  999.0,  999.0,  999.0,  999.0,  999.0,  999.0,  999.0,   55.1,   55.2,   55.2,   55.2,   55.3,   55.3,   55.2,   55.3,   55.2,   55.2,   55.1,   55.2,   55.5,   55.2,   55.3,   55.3,   55.3,  999.0,  999.0,   55.2,   55.3,  999.0,  999.0,  999.0,  999.0,  999.0,  999.0,  999.0,  999.0,  999.0,  999.0
2005/08/23 00:50,  999.0,    6.1,    4.1,    4.3,    4.8,    2.6,    3.6,    2.5,    4.5,    5.3,    4.9,    4.8,    5.7,    6.5,    7.3,    7.6,    7.8,    8.0,  999.0,  999.0,  999.0,  999.0,  999.0,  999.0,   31.5,  999.0,  999.0,   32.4,   33.0,  999.0,  999.0,  999.0,  999.0,  999.0,  999.0,   55.1,   55.1,   55.1,   55.1,   55.1,   55.1,   55.1,   55.2,   55.2,   55.2,   55.2,   55.5,   55.2,   55.3,   55.7,   55.5,   55.6,   56.1,   55.6,  999.0,  999.0,  999.0,  999.0,  999.0,  999.0,  999.0,  999.0,  999.0
2005/08/23 01:00,  999.0,    5.8,    6.0,    5.5,    0.1,  999.0,    2.5,  999.0,    5.1,    4.8,    4.2,    4.9,    6.1,    7.3,    7.7,    7.6,    8.0,  999.0,  999.0,  999.0,  999.0,  999.0,  999.0,  999.0,  999.0,  999.0,  999.0,  999.0,  999.0,  999.0,  999.0,  999.0,  999.0,  999.0,  999.0,   55.1,   55.1,   55.1,   55.1,   55.2,   55.2,   55.2,   55.2,   55.3,   47.9,   52.3,   55.3,   55.6,   45.2,   48.3,  999.0,  999.0,  999.0,  999.0,  999.0,  999.0,  999.0,  999.0,  999.0,  999.0,  999.0,  999.0,  999.0
2005/08/23 01:10,  999.0,    4.9,    4.6,    3.4,    3.8,  999.0,    2.0,    4.8,  999.0,    4.8,    5.1,    5.0,    6.3,    7.3,    7.5,    7.6,    7.9,    8.7,    8.7,    9.3,  999.0,  999.0,  999.0,  999.0,  999.0,  999.0,  999.0,  999.0,  999.0,  999.0,  999.0,  999.0,  999.0,  999.0,   41.3,   55.1,   55.2,   55.1,   55.1,   55.1,   55.2,   55.3,   55.2,   55.2,   55.2,   55.2,   51.6,   50.7,   55.1,  999.0,  999.0,  999.0,  999.0,  999.0,  999.0,  999.0,   15.4,  999.0,  999.0,  999.0,  999.0,  999.0,  999.0
2005/08/23 01:20,  999.0,    4.8,    3.7,    2.5,    3.1,    2.4,    1.6,    2.6,    4.1,    5.2,    4.8,    4.9,    6.1,    6.9,    7.1,    7.5,    8.0,    8.5,  999.0,  999.0,  999.0,  999.0,  999.0,  999.0,  999.0,  999.0,  999.0,  999.0,  999.0,  999.0,  999.0,  999.0,  999.0,  999.0,  999.0,   33.3,   33.1,   32.6,   33.0,   33.5,   33.3,   34.0,   34.5,   34.5,   26.9,   34.4,   33.4,   26.6,   33.9,  999.0,  999.0,  999.0,  999.0,  999.0,  999.0,  999.0,  999.0,  999.0,  999.0,  999.0,  999.0,  999.0,  999.0
2005/08/23 01:30,  999.0,    4.1,    3.2,    2.3,    2.4,    2.2,    2.4,    2.5,    4.3,    5.5,    4.8,    4.7,    4.8,    6.3,    7.4,    7.9,    7.9,    9.1,  999.0,  999.0,  999.0,  999.0,  999.0,  999.0,  999.0,  999.0,   10.0,    9.6,    9.3,    9.6,   10.5,   11.4,   11.7,   12.0,   12.3,   12.3,   12.1,   11.9,   12.1,   12.2,   12.5,   12.9,   13.3,   14.0,   12.7,   11.4,   10.5,   11.1,   11.4,   12.3,   13.8,   13.9,   13.9,   14.2,   14.8,   14.4,  999.0,  999.0,  999.0,  999.0,  999.0,  999.0,  999.0
2005/08/23 01:40,  999.0,  999.0,    5.1,    4.0,    3.0,  999.0,    4.1,  999.0,  999.0,  999.0,  999.0,    5.6,  999.0,  999.0,  999.0,  999.0,    7.7,    8.8,    9.8,   10.6,   11.4,   10.8,   10.0,    9.7,    9.8,   10.1,   10.0,   10.3,   10.0,   10.4,   11.5,   12.1,   12.2,   12.2,   12.5,   12.2,   12.5,   12.6,  999.0,   12.0,   11.2,   10.9,  999.0,  999.0,   11.1,   11.2,  999.0,  999.0,   11.8,   14.3,   16.2,   16.9,   16.4,   16.5,   15.9,   16.2,  999.0,  999.0,  999.0,  999.0,  999.0,  999.0,  999.0
2005/08/23 01:50,  999.0,    4.7,    5.5,    4.5,    4.1,  999.0,    4.2,    3.0,  999.0,    5.1,    4.2,  999.0,  999.0,  999.0,  999.0,    8.3,    9.3,   10.4,   10.9,   10.7,   11.5,   10.1,    9.7,    9.7,    9.8,   10.1,   10.1,   11.0,    9.8,    9.6,   10.1,   10.6,   11.1,   11.3,   11.5,   11.8,   11.5,   11.5,   11.1,    9.6,    9.9,   10.8,   11.1,   12.2,   11.5,   10.5,   10.6,   11.8,  999.0,  999.0,   35.4,   29.5,   42.2,   29.2,  999.0,  999.0,  999.0,  999.0,  999.0,  999.0,  999.0,  999.0,  999.0
2005/08/23 02:00,  999.0,  999.0,    3.2,    3.4,    7.0,    1.5,    1.6,    2.2,    2.7,    4.3,    4.6,    4.6,    5.6,    7.3,    7.0,    6.9,    7.2,    8.0,    9.8,   10.5,   10.5,   10.1,    9.5,    9.1,    9.0,    9.6,   10.2,   10.0,    9.6,    9.1,    9.3,   10.1,   10.5,   10.6,   10.6,   11.0,   11.1,   11.5,   11.6,   10.9,   11.4,   11.5,  999.0,  999.0,  999.0,  999.0,  999.0,  999.0,  999.0,  999.0,  999.0,   55.5,   55.5,  999.0,  999.0,  999.0,  999.0,  999.0,  999.0,  999.0,  999.0,  999.0,  999.0
2005/08/23 02:10,  999.0,  999.0,    1.9,    2.6,    0.1,    2.0,    1.1,    2.1,  999.0,  999.0,  999.0,    4.2,    5.4,    7.7,    6.8,    7.2,    7.7,    7.5,   10.0,   11.1,   10.9,   10.6,   10.5,    9.7,    8.9,    9.8,    8.9,    9.3,    8.6,    8.5,    9.0,    9.5,    9.2,    9.9,   10.2,   10.3,   11.0,   11.7,   11.5,   10.5,   10.8,   11.9,   12.6,   13.1,   12.8,  999.0,   11.9,  999.0,   15.9,  999.0,  999.0,  999.0,  999.0,  999.0,  999.0,  999.0,  999.0,  999.0,  999.0,  999.0,  999.0,  999.0,  999.0
2005/08/23 02:20,  999.0,    1.9,    2.8,    2.7,    4.2,    1.2,    2.7,    5.7,  999.0,  999.0,    4.9,  999.0,    4.5,    6.6,  999.0,    7.5,    8.4,    9.7,  999.0,   10.4,  999.0,  999.0,  999.0,  999.0,    9.7,    9.2,    9.2,    9.5,    9.3,    7.7,  999.0,  999.0,  999.0,   10.0,    9.2,    9.5,   10.8,   10.5,   11.4,   10.2,   10.2,   10.8,   11.5,   12.5,   12.9,   12.8,   12.6,   14.2,   15.7,   16.0,   16.8,   17.4,   18.2,   18.4,   17.7,  999.0,  999.0,  999.0,  999.0,  999.0,  999.0,  999.0,  999.0
2005/08/23 02:30,  999.0,  999.0,  999.0,  999.0,    0.9,    0.9,    0.6,    2.5,    3.0,    5.0,    4.7,  999.0,    6.2,    6.5,  999.0,    7.8,    7.8,    8.7,  999.0,  999.0,  999.0,  999.0,  999.0,  999.0,  999.0,  999.0,  999.0,  999.0,  999.0,    8.7,  999.0,  999.0,    9.3,    9.0,    9.3,    9.5,  999.0,   10.8,   11.3,   10.3,   10.0,  999.0,   11.8,   12.8,   13.9,   13.8,   14.9,   14.7,   15.9,   15.6,   16.4,  999.0,  999.0,  999.0,  999.0,  999.0,  999.0,  999.0,  999.0,  999.0,  999.0,  999.0,  999.0
2005/08/23 02:40,  999.0,    4.1,    2.4,    5.3,    2.3,  999.0,  999.0,  999.0,  999.0,  999.0,  999.0,  999.0,    6.2,    7.6,    7.4,    7.1,    7.9,    9.1,  999.0,  999.0,  999.0,  999.0,  999.0,  999.0,  999.0,  999.0,  999.0,   28.9,   29.6,   29.3,   29.5,   29.9,   29.6,   29.7,   30.2,   30.5,   30.5,  999.0,  999.0,  999.0,  999.0,  999.0,   11.4,   12.8,   13.6,   14.4,   14.8,   16.1,   16.0,   16.8,   18.0,   17.6,  999.0,  999.0,  999.0,  999.0,  999.0,  999.0,  999.0,  999.0,  999.0,  999.0,  999.0
2005/08/23 02:50,  999.0,    5.0,    3.6,    3.7,    1.7,    1.3,  999.0,    3.5,    4.6,    5.5,    5.5,    4.9,    3.8,    7.1,    6.6,    6.7,    8.2,    8.5,   10.2,  999.0,  999.0,  999.0,  999.0,  999.0,  999.0,  999.0,  999.0,  999.0,   15.8,   14.1,   19.3,   19.2,   19.4,   28.0,   28.1,   33.1,   33.3,   33.6,   35.8,   35.8,   35.3,  999.0,   12.8,   13.0,   13.7,   14.2,   14.8,   15.8,   16.4,   17.5,   18.2,   17.7,   17.0,  999.0,  999.0,  999.0,  999.0,  999.0,  999.0,  999.0,  999.0,  999.0,  999.0
2005/08/23 03:00,  999.0,    4.8,    2.9,    3.1,    3.4,    0.8,  999.0,    2.8,    2.7,    5.1,    3.9,    4.3,    4.4,    5.7,    7.2,  999.0,   13.5,  999.0,  999.0,  999.0,  999.0,  999.0,  999.0,  999.0,  999.0,  999.0,  999.0,    9.8,  999.0,  999.0,  999.0,    9.6,    9.7,    9.8,    9.9,    9.8,   14.2,   14.3,   10.1,   10.0,   11.0,   11.4,   12.2,  999.0,   13.4,   13.9,   14.8,  999.0,   16.6,   17.9,   18.0,   17.0,   16.6,  999.0,  999.0,  999.0,  999.0,  999.0,  999.0,  999.0,  999.0,  999.0,  999.0
2005/08/23 03:10,  999.0,  999.0,    4.3,    4.4,    2.5,    4.9,    4.8,   -0.3,    1.2,  999.0,  999.0,    3.6,  999.0,  999.0,  999.0,  999.0,  999.0,  999.0,  999.0,  999.0,   10.2,   10.3,    9.5,   10.1,    8.6,    9.6,    9.2,    9.3,    9.0,    9.0,    8.8,    9.4,    9.6,    9.8,   10.1,   10.1,    9.7,    9.5,    9.7,   10.2,   11.1,   12.7,   12.6,  999.0,  999.0,  999.0,  999.0,  999.0,  999.0,  999.0,  999.0,  999.0,  999.0,  999.0,  999.0,  999.0,  999.0,  999.0,  999.0,  999.0,  999.0,  999.0,  999.0
2005/08/23 03:20,  999.0,    3.1,    2.1,    2.3,    1.9,    1.5,  999.0,    2.4,    3.6,    5.4,    5.1,    6.0,    7.3,    6.7,    7.0,  999.0,  999.0,    7.1,   10.3,    9.8,    5.2,  999.0,  999.0,  999.0,  999.0,  999.0,  999.0,  999.0,  999.0,    9.3,    9.4,    9.5,    9.9,   10.2,   10.6,   10.5,   10.3,   10.2,   10.2,   10.5,   11.5,   12.5,   12.8,   12.5,   12.5,   12.8,   13.6,   14.7,  999.0,   17.8,  999.0,  999.0,  999.0,  999.0,  999.0,  999.0,  999.0,  999.0,  999.0,  999.0,  999.0,  999.0,  999.0
2005/08/23 03:30,  999.0,    3.5,    4.6,    2.5,    2.6,    2.6,    2.5,    3.4,    4.1,    5.0,    5.2,    5.6,    6.1,    6.4,    6.5,    6.6,  999.0,    9.4,  999.0,  999.0,  999.0,  999.0,  999.0,  999.0,  999.0,  999.0,  999.0,  999.0,    8.6,    8.4,    9.0,    9.9,   10.3,    9.8,    9.9,   10.1,    9.6,   10.0,   10.4,   10.8,   11.7,   12.1,   12.8,   13.3,   13.1,   13.6,   14.6,   15.6,   17.3,   18.0,  999.0,  999.0,  999.0,  999.0,  999.0,  999.0,  999.0,  999.0,  999.0,  999.0,  999.0,  999.0,  999.0
2005/08/23 03:40,  999.0,    5.6,    3.8,    2.7,    2.1,  999.0,    2.4,    2.5,    3.8,    4.7,    4.4,    5.3,    6.5,    6.2,  999.0,    6.7,    7.9,    8.9,    9.3,    8.8,    8.8,  999.0,  999.0,  999.0,  999.0,  999.0,    8.2,    8.0,    8.5,    8.3,    8.4,    9.2,    9.8,    9.7,    9.8,   10.1,    9.7,   10.5,   11.3,   11.7,   12.1,   12.2,   12.6,   13.4,   13.4,   14.1,   14.9,   15.1,   16.9,   17.8,   17.9,  999.0,  999.0,  999.0,  999.0,  999.0,  999.0,  999.0,  999.0,  999.0,  999.0,  999.0,  999.0
2005/08/23 03:50,  999.0,    4.0,    4.2,    3.9,  999.0,  999.0,  999.0,    3.9,    5.0,    5.1,  999.0,    6.0,    5.4,  999.0,  999.0,    7.1,    8.3,  999.0,  999.0,  999.0,    9.2,  999.0,  999.0,  999.0,  999.0,  999.0,    8.2,    7.5,    8.2,    7.8,    8.4,    9.0,    9.6,   10.0,    9.4,  999.0,  999.0,   10.8,   11.6,   11.3,   12.1,   11.7,   11.7,   12.4,   13.8,   14.6,   15.1,   15.5,   16.3,   16.5,   16.7,   18.0,   17.8,  999.0,  999.0,  999.0,  999.0,  999.0,  999.0,  999.0,  999.0,  999.0,  999.0
2005/08/23 04:00,  999.0,  999.0,    1.8,    3.5,    3.4,    2.1,    0.2,    3.1,  999.0,    4.7,    3.1,    2.0,  999.0,  999.0,  999.0,  999.0,  999.0,  999.0,  999.0,  999.0,  999.0,  999.0,  999.0,  999.0,  999.0,  999.0,  999.0,  999.0,  999.0,  999.0,    7.7,    9.1,    9.3,    9.4,    9.0,    8.9,    9.2,   10.4,   11.3,   11.7,   11.7,   11.7,   12.4,   12.7,   13.2,   13.9,   14.3,   15.1,   14.8,   16.2,   15.3,  999.0,  999.0,  999.0,  999.0,  999.0,  999.0,  999.0,  999.0,  999.0,  999.0,  999.0,  999.0
2005/08/23 04:10,  999.0,    6.0,    5.5,    4.6,    3.0,    2.4,    2.7,    3.1,    3.5,    4.5,    4.4,    5.2,    5.9,    5.8,    6.4,    6.4,    5.8,    7.1,    8.1,    8.0,    7.9,    8.2,    7.9,    8.3,    8.1,    9.3,    8.2,  999.0,    8.0,    8.1,    8.2,    8.9,    9.0,    8.7,    8.9,    9.4,   10.3,   11.5,   11.4,   11.6,   11.9,   11.9,   11.5,   12.2,   12.4,   12.8,   13.3,   14.3,  999.0,  999.0,  999.0,  999.0,  999.0,  999.0,  999.0,  999.0,  999.0,  999.0,  999.0,   17.3,   16.9,   17.2,   16.3
2005/08/23 04:20,  999.0,    5.9,    5.6,    4.9,    3.6,    3.7,    3.5,    4.1,    4.7,    4.8,    4.4,    4.6,    4.9,    6.3,    5.9,    6.1,    6.9,    8.2,    9.5,    8.9,    8.7,    9.0,    8.6,    8.7,    7.5,    7.0,    6.7,  999.0,    7.3,    7.1,    8.2,    8.6,    9.2,    9.2,    9.2,    9.4,    9.8,   10.3,   10.8,   10.9,   10.9,   11.1,   11.4,   11.9,   12.1,   12.4,   13.3,   13.5,  999.0,  999.0,  999.0,  999.0,  999.0,  999.0,  999.0,  999.0,  999.0,  999.0,  999.0,  999.0,  999.0,  999.0,  999.0
2005/08/23 04:30,  999.0,    5.5,    5.2,    3.9,    3.8,    2.8,    2.7,    3.0,    4.3,    4.6,    4.6,    4.6,    5.2,    6.3,    5.8,    6.0,    6.3,    7.4,    8.1,    8.4,    8.6,    8.3,    7.4,    7.5,    7.2,    7.1,    7.1,  999.0,  999.0,    7.8,    8.6,    9.2,    9.3,    9.3,    9.6,    9.7,   10.0,   10.4,   10.8,   10.5,   10.5,   10.6,   11.0,   11.3,   11.4,   11.9,   13.4,   14.5,   16.0,   16.8,   16.9,  999.0,   16.8,  999.0,  999.0,  999.0,  999.0,  999.0,  999.0,  999.0,  999.0,  999.0,  999.0
2005/08/23 04:40,  999.0,   10.5,    9.9,    4.4,    3.8,    3.6,    2.7,    2.7,    3.7,    4.5,    5.2,    5.2,    4.9,    6.3,    6.7,    7.5,    8.0,   10.9,   11.3,    9.3,    9.9,   10.1,    9.9,    9.3,    6.9,  999.0,    7.7,    6.8,    7.6,    7.8,    9.3,    9.9,   10.2,   10.4,   10.2,   10.0,   10.5,   10.7,   10.9,   11.7,   12.1,   12.2,   12.5,   12.5,   12.4,   12.8,   14.2,   15.6,   17.3,   16.6,   17.2,   17.3,  999.0,  999.0,  999.0,  999.0,  999.0,   18.3,   17.9,   16.7,   16.1,   16.6,   16.2
2005/08/23 04:50,  999.0,    5.3,    5.0,    4.0,    3.5,    3.4,    2.2,    2.3,    2.8,    4.3,    4.1,    4.2,    5.0,    6.5,    7.0,    6.9,    6.4,    6.8,    7.5,    8.2,    9.2,   10.1,    9.9,   10.4,    8.4,  999.0,    8.6,  999.0,    6.2,    7.4,    8.9,    9.1,    9.2,    9.6,    9.5,    9.9,   10.2,   10.7,   10.8,   11.5,   11.3,   11.0,   12.0,   12.4,   12.8,   14.4,   16.3,   17.7,   18.9,   19.2,   18.3,   17.3,   17.1,   16.8,   16.4,   16.3,   16.4,   16.7,   17.5,   17.8,   17.6,   17.3,  999.0
2005/08/23 05:00,  999.0,    5.3,    5.3,    4.7,    3.3,    3.7,    3.1,    3.3,    3.8,    3.9,    3.7,    4.2,    4.6,    5.5,    6.1,    6.3,    6.4,    7.1,    7.9,    8.2,    8.0,    8.4,    8.4,    8.1,    8.1,  999.0,  999.0,    5.4,    5.6,    7.2,    8.5,    9.7,   10.3,   10.3,   10.4,   10.5,   10.7,   10.9,   10.8,   10.8,   10.4,   10.5,   11.4,   12.1,   13.3,   15.1,   17.0,   17.2,   17.0,   16.6,   16.4,   16.2,   15.7,   15.4,   15.5,   15.4,   15.8,   15.2,   15.3,   15.8,   16.1,   16.7,  999.0
2005/08/23 05:10,  999.0,    5.0,    4.9,    4.3,    2.9,    2.2,    3.5,    3.7,    4.3,    4.8,    4.5,    4.5,    4.6,    5.0,    5.6,    6.6,    7.1,    7.3,    7.5,    8.5,    8.3,    7.9,    7.7,    7.7,    7.0,    6.4,    6.7,  999.0,    6.6,    8.4,    9.1,    9.9,   10.5,   10.4,   11.3,   11.0,   11.1,   11.4,   10.8,   10.8,   10.8,   11.1,   12.2,   12.8,   13.9,   15.5,   16.5,   16.2,   15.2,   14.8,   14.5,   14.2,   14.1,   14.4,   14.7,   14.9,   14.9,   14.8,   14.7,   14.3,   13.3,  999.0,  999.0
2005/08/23 05:20,  999.0,    4.5,    4.3,    3.3,    3.2,    2.6,    2.2,    3.6,    5.9,    5.1,    4.3,    4.5,    3.9,    4.7,    5.0,    4.8,    6.1,  999.0,  999.0,  999.0,  999.0,    7.9,    9.7,    8.8,   10.3,  999.0,    7.8,    8.4,    8.4,    8.5,   10.0,    9.9,   10.0,   11.2,   11.1,   11.3,   10.8,   11.3,   12.0,   12.2,   12.1,   12.5,   13.1,   13.7,   14.7,   16.2,   16.2,   15.8,   14.7,   14.7,   15.0,   15.0,   14.4,   14.2,   14.7,   15.1,   14.9,   16.0,  999.0,  999.0,  999.0,  999.0,  999.0
2005/08/23 05:30,  999.0,    4.2,    3.8,    3.2,    2.9,    2.6,    2.6,    2.8,    3.8,    4.1,    4.1,    4.0,    3.8,    4.1,    3.6,    5.0,    5.5,    5.4,    5.2,    5.3,    6.4,    7.0,    5.9,    6.1,    6.3,    7.4,  999.0,  999.0,    8.6,    8.7,    9.3,    9.6,    9.9,   10.1,    9.8,    9.9,   10.3,   10.7,   11.2,   11.5,   12.0,   12.5,   13.0,   13.7,   16.8,   15.8,   14.6,   14.3,   15.1,   14.4,   15.7,   14.8,   16.2,   15.1,   15.6,   15.6,   15.9,   16.7,   15.9,  999.0,  999.0,  999.0,  999.0
2005/08/23 05:40,  999.0,    4.1,    3.8,    3.7,    1.9,    1.9,    2.1,    3.1,    3.5,    4.5,    5.1,    5.8,    4.9,    5.5,    5.7,    5.7,    5.6,    5.9,    6.0,    6.4,    5.6,    4.8,    3.4,    3.8,  999.0,    7.9,    4.4,  999.0,    7.1,    8.2,    7.6,   10.9,   10.5,   10.5,    9.7,   10.8,   11.4,   10.9,   10.8,   10.9,   11.2,   11.6,   12.1,   12.6,   14.3,   15.5,   15.4,   14.7,   14.7,   14.9,   15.2,   14.8,   13.5,   14.7,   15.0,   16.6,   17.1,   16.0,   14.9,   23.0,  999.0,  999.0,   -0.1
2005/08/23 05:50,  999.0,    3.8,    3.7,    2.5,    2.7,    1.8,    2.7,    3.0,    3.6,    4.9,    3.8,    3.9,    4.1,    4.4,    3.5,    3.9,    2.7,    4.8,    5.1,    5.2,    6.4,    6.3,    5.3,    5.7,    4.2,    3.5,    3.3,    4.9,    7.3,    8.0,    8.9,    9.0,    9.3,   10.4,   11.2,   11.1,   12.7,   14.0,   14.3,   14.5,   13.8,   14.3,   15.2,   15.5,   15.8,   15.9,   16.0,   16.2,   15.9,   16.4,   16.2,   15.6,   15.1,   14.6,   13.8,   13.8,   14.1,   14.4,   15.1,   14.7,   16.0,    9.3,    8.4
2005/08/23 06:00,  999.0,    3.8,    3.4,    2.7,    1.7,    1.3,    1.5,    2.1,    2.9,    3.1,    3.7,    3.6,    4.2,    4.8,    5.2,    5.4,    5.5,    6.1,    6.2,    6.3,    7.1,    8.1,    7.6,    6.4,    5.0,    6.2,    7.1,    8.1,    8.8,    9.2,    9.3,    9.0,    9.7,    9.5,    9.3,    9.7,    9.7,    9.5,   10.6,    8.8,   12.3,    8.9,    8.7,   10.4,   11.6,   12.3,   13.2,   12.8,   15.7,   17.0,   18.6,   18.7,   19.2,   19.7,   17.3,   16.4,   14.8,   16.8,   15.4,   14.1,   16.0,   17.3,   17.9
2005/08/23 06:10,  999.0,    3.5,    3.3,    2.7,    1.8,    1.4,    1.4,    2.1,    3.3,    2.8,    3.3,    4.1,    3.9,    3.8,    3.5,    4.2,    5.0,    6.8,    8.1,    9.2,   10.6,   11.1,    9.6,    8.9,    7.5,    6.9,    6.2,    6.0,    5.5,    5.1,    4.7,    5.5,    5.6,    7.7,    8.4,   10.3,   10.3,   12.0,   12.5,   12.5,   11.9,   11.8,   11.2,   11.2,   11.6,   13.1,   15.1,   16.5,   15.6,   15.2,   16.3,   16.8,   16.5,   16.7,   16.4,   16.1,   15.7,   15.5,   14.6,   14.9,   15.2,   14.4,   14.7
2005/08/23 06:20,  999.0,    2.9,    2.9,    2.4,    2.1,    2.3,    1.9,    3.0,    2.9,    3.4,    4.7,    4.8,    4.4,    3.5,    4.0,    4.3,    6.5,    8.5,   10.5,   12.3,   10.1,    9.7,    9.8,   10.1,    8.2,    5.9,    2.5,    3.9,    5.1,    6.4,    6.5,    7.6,    9.4,   10.1,   10.2,   11.0,   10.3,   10.2,   10.8,   10.4,   11.9,   12.0,   13.4,   13.2,   12.7,   12.3,   12.5,   12.0,   12.2,   12.1,   12.5,   12.4,   12.3,   13.1,   13.2,   11.4,   11.5,   11.7,   11.6,  999.0,  999.0,  999.0,  999.0
2005/08/23 06:30,  999.0,    3.0,    2.5,    2.2,    1.8,    0.9,    2.5,    3.0,    2.2,    1.9,    2.2,    2.5,    2.5,    2.7,    3.6,    4.3,    4.9,    6.8,    8.6,    9.5,   11.0,   11.5,   11.4,   11.1,   10.2,    9.2,    9.0,    8.1,    8.0,    6.6,    6.0,    6.1,    4.9,    5.9,    6.9,    5.9,    6.4,    7.5,    8.4,    9.1,   10.0,   11.4,   12.3,   12.8,   13.1,   13.3,   12.2,   11.0,   11.7,   13.0,   13.3,   13.6,   14.8,   14.7,  999.0,  999.0,  999.0,  999.0,  999.0,  999.0,  999.0,  999.0,  999.0
2005/08/23 06:40,  999.0,    2.5,    2.3,    2.9,    2.1,    1.9,    2.3,    2.3,    3.2,    2.8,    2.5,    1.8,    1.9,    2.0,    2.6,    3.6,    6.0,    8.8,   11.3,   12.2,   12.2,   12.3,   10.0,   11.5,   11.2,    9.3,    7.7,  999.0,    8.9,    9.0,    8.7,    8.5,    9.2,   10.1,   10.4,   10.5,   10.6,   10.7,   10.6,   11.0,   11.7,   11.0,   11.0,   11.0,   10.8,   10.4,   10.7,   10.8,   11.4,   11.2,   11.7,   11.5,   11.6,   11.7,   11.8,   13.0,   13.2,  999.0,  999.0,  999.0,  999.0,  999.0,  999.0
2005/08/23 06:50,  999.0,    1.9,    1.1,    1.3,    0.5,    1.0,    1.2,    2.0,    1.7,    1.6,    1.6,    1.7,    1.7,    3.8,    4.0,    4.7,    6.6,    7.6,    8.1,    9.1,   10.4,   11.8,    9.1,   11.7,   11.6,   10.6,    9.8,   10.4,    9.8,    9.7,   10.0,   10.4,   11.0,   10.8,   10.4,    9.4,    8.5,    8.7,    8.9,    9.0,    9.0,    9.0,    8.8,    9.0,    9.5,    9.0,    9.6,   10.8,   12.3,   12.8,   15.2,   12.0,   11.7,   12.5,   12.9,   12.9,   14.2,  999.0,  999.0,  999.0,  999.0,  999.0,  999.0
2005/08/23 07:00,  999.0,    0.9,    0.9,    2.1,    1.7,    1.9,    1.4,    3.6,    3.7,    3.1,    0.6,    0.1,   -0.1,    0.8,    2.2,    3.6,    4.2,    5.1,    5.2,    5.9,    7.3,    7.6,    7.3,    7.6,    7.1,    7.2,    8.2,    9.9,    9.6,    9.4,    9.3,    9.7,    9.6,    9.4,    9.3,    8.3,    8.2,    8.5,    9.1,   10.4,   10.4,   10.0,    8.8,    9.7,   10.9,   11.5,   12.7,   12.2,   13.4,   13.5,   13.1,   12.6,   14.7,   14.1,  999.0,  999.0,  999.0,  999.0,  999.0,  999.0,  999.0,  999.0,  999.0
2005/08/23 07:10,  999.0,   -0.0,   -0.0,    0.6,    1.1,    0.9,    1.0,    0.7,   -0.6,   -0.4,   -0.8,   -1.0,    0.2,    2.5,    3.2,    1.3,    4.5,    4.6,    3.1,    5.0,    3.6,    8.5,    8.3,    6.6,    7.4,    8.0,    8.0,    7.8,   10.9,   12.2,   12.5,   11.6,   11.5,   12.1,   12.2,   12.3,   12.6,   13.4,   13.8,   14.7,   15.8,   15.9,   16.2,   16.1,   15.6,   15.2,   15.0,   15.4,   14.9,  999.0,    9.3,    6.5,    7.1,    9.4,    5.5,    0.9,    0.3,    0.2,    0.0,    0.3,   -0.3,   -0.8,   -1.0
2005/08/23 07:20,  999.0,    0.9,    0.2,    0.7,    3.0,    1.0,    1.0,    0.4,    0.1,    1.0,   -1.2,   -0.2,   -0.6,    1.5,    2.0,    0.6,    2.0,    3.4,    4.4,    4.0,    4.7,    5.9,    6.4,    7.0,    6.6,    7.6,    9.9,  999.0,   11.3,   10.9,    9.6,   10.5,   11.6,   13.5,   12.1,   12.7,   13.1,   12.9,   12.3,   12.5,   12.8,   13.0,   13.8,   14.3,   14.3,   14.3,   15.1,  999.0,  999.0,  999.0,    0.8,   -1.0,    0.1,    0.5,  999.0,   -0.4,    1.0,  999.0,  999.0,   -0.2,    0.3,  999.0,  999.0
2005/08/23 07:30,  999.0,    0.9,    0.9,    0.2,   -0.0,    1.7,    2.8,    1.2,    1.4,    0.5,   -0.6,   -1.5,   -0.7,    0.4,   -0.7,    2.0,    2.6,    2.4,    2.2,    0.9,    1.1,    2.0,    3.7,    4.8,    6.2,    7.0,    8.2,    9.5,    9.6,   10.4,   10.3,   11.1,   12.4,   13.0,   11.3,   10.8,   10.7,   10.2,   11.1,   12.2,   12.2,   12.8,   13.8,   13.2,   13.3,   13.3,  999.0,  999.0,  999.0,  999.0,  999.0,  999.0,  999.0,  999.0,  999.0,  999.0,  999.0,  999.0,  999.0,  999.0,  999.0,  999.0,  999.0
2005/08/23 07:40,  999.0,    1.1,    0.4,   -0.2,    0.6,    0.8,    1.4,    0.8,    0.3,   -0.1,   -0.6,   -1.1,   -1.0,    1.0,   -1.3,   -0.7,   -0.3,    1.0,    0.5,    1.5,    0.7,   -2.1,   -5.1,   -3.8,   -4.4,   -4.9,    6.4,    4.3,    4.3,    5.0,    7.3,    7.2,    7.6,    9.0,    9.4,    9.4,    9.9,   10.5,   11.7,   13.4,   14.7,   14.2,   13.9,   13.8,   13.8,  999.0,  999.0,  999.0,  999.0,  999.0,  999.0,  999.0,  999.0,  999.0,  999.0,  999.0,  999.0,  999.0,  999.0,  999.0,  999.0,  999.0,  999.0
2005/08/23 07:50,  999.0,   -0.1,    0.3,    0.3,    0.7,    0.8,   -0.5,   -0.7,   -1.3,   -0.3,   -0.9,   -1.0,    0.1,   -1.2,   -2.0,   -3.4,   -1.9,   -5.9,   -3.0,   -3.0,   -4.5,   -4.6,   -6.2,   -5.5,    1.1,    0.5,    8.7,    7.9,    8.6,    8.9,    8.9,    9.6,   10.8,   11.3,   10.6,   10.8,  999.0,  999.0,  999.0,  999.0,  999.0,  999.0,  999.0,  999.0,  999.0,  999.0,  999.0,  999.0,  999.0,  999.0,  999.0,  999.0,  999.0,  999.0,  999.0,  999.0,  999.0,  999.0,  999.0,  999.0,  999.0,  999.0,  999.0
2005/08/23 08:00,  999.0,    0.0,   -0.0,   -0.2,   -0.4,    1.0,    0.4,   -0.9,    0.0,   -0.2,    1.1,    1.4,    1.8,    2.9,    6.3,    4.4,    3.4,    3.7,    4.6,  999.0,    4.3,    4.9,    4.1,    5.8,    5.7,    7.9,    9.9,    9.9,   10.2,   10.1,    9.5,    9.4,    9.7,    9.6,   10.0,   10.5,   10.2,   22.2,  999.0,  999.0,  999.0,  999.0,  999.0,   55.2,  999.0,   55.2,   55.3,   55.3,  999.0,   55.3,   55.4,  999.0,   55.7,   55.6,  999.0,  999.0,  999.0,  999.0,  999.0,  999.0,  999.0,  999.0,  999.0
2005/08/23 08:10,  999.0,    0.3,  999.0,    0.1,   -3.0,    0.6,  999.0,   -2.1,  999.0,  999.0,   -1.5,    2.4,    2.1,    1.4,    2.5,    3.6,    3.3,  999.0,    1.0,  999.0,  999.0,    1.2,    4.4,  999.0,  999.0,  999.0,  999.0,   10.1,    9.8,    9.7,  999.0,  999.0,  999.0,  999.0,  999.0,  999.0,  999.0,   55.2,   55.0,   55.1,   55.2,   55.2,   55.2,   55.2,   55.2,   55.4,   55.3,   55.2,  999.0,  999.0,  999.0,  999.0,  999.0,  999.0,  999.0,  999.0,  999.0,  999.0,  999.0,  999.0,  999.0,  999.0,  999.0
2005/08/23 08:20,  999.0,   -1.3,   -0.3,    0.8,   -2.3,    2.0,    1.0,    1.2,   -0.5,    1.1,    1.4,    4.5,    4.5,    3.5,    2.9,    3.2,    3.8,    4.4,    5.6,    5.1,    5.7,    5.8,    5.7,    6.8,    7.6,  999.0,  999.0,  999.0,    9.7,    9.1,    9.7,   10.3,   10.8,   11.7,  999.0,  999.0,  999.0,  999.0,  999.0,  999.0,  999.0,   27.7,   27.6,   41.4,   49.8,   45.9,   48.3,   48.4,   49.8,   36.9,   48.5,   46.0,  999.0,  999.0,  999.0,   55.9,  999.0,  999.0,  999.0,  999.0,  999.0,  999.0,  999.0
2005/08/23 08:30,  999.0,  999.0,   -0.4,    0.2,    0.9,    1.0,   -0.0,    0.4,    0.5,    1.5,    0.8,    2.6,    1.7,    2.2,    2.1,    3.1,    3.6,    4.3,    3.9,    5.0,    4.6,    6.0,    7.5,    8.6,   10.0,  999.0,  999.0,  999.0,  999.0,  999.0,   32.1,   32.2,   17.8,   28.3,   24.7,  999.0,  999.0,  999.0,  999.0,  999.0,  999.0,  999.0,  999.0,  999.0,  999.0,  999.0,   55.2,   55.3,  999.0,  999.0,  999.0,  999.0,  999.0,  999.0,  999.0,  999.0,  999.0,  999.0,  999.0,  999.0,  999.0,  999.0,  999.0
2005/08/23 08:40,  999.0,  999.0,  999.0,    2.4,    2.1,    1.3,    1.5,    2.0,    0.4,   -0.7,   -2.1,   -2.3,   -2.2,   -1.8,   -1.7,   -2.0,   -2.7,   -2.9,   -3.1,   -3.0,   -1.7,  999.0,   -4.3,   -5.4,   -5.6,  999.0,  999.0,  999.0,  999.0,  999.0,  999.0,  999.0,  999.0,  -41.4,  -41.2,  -41.4,  -41.5,  -45.9,  -36.8,  -55.1,  -41.3,  -46.0,  -46.1,  -36.8,  -36.8,  -46.1,  -46.0,  -55.3,  -27.7,  999.0,  -27.8,  -55.5,  -37.1,  999.0,  999.0,  999.0,  999.0,  999.0,  999.0,  999.0,  999.0,  999.0,  999.0
2005/08/23 08:50,  999.0,  999.0,    5.5,    3.2,    1.9,    1.4,    2.2,    1.7,   -0.5,   -1.2,   -1.6,   -3.0,   -2.5,   -1.8,   -1.9,   -2.2,   -2.1,   -2.6,   -3.0,   -2.4,   -2.2,   -2.8,   -3.2,   -4.6,  999.0,   -4.4,   -2.9,   -3.4,  999.0,  999.0,  999.0,  999.0,  999.0,  999.0,  -55.1,  -55.1,  -55.1,  -55.1,  -55.1,  -55.1,  -55.1,  -55.2,  -55.0,  -55.1,  -55.3,  -55.3,  999.0,  -55.1,  999.0,  999.0,  -55.1,  999.0,  999.0,  999.0,  999.0,  999.0,  999.0,  999.0,  999.0,  999.0,  999.0,  999.0,  999.0
2005/08/23 09:00,  999.0,   -3.8,    4.5,    5.0,    3.5,  999.0,    2.6,    1.5,   -0.0,   -1.0,   -1.9,   -2.0,   -4.3,   -4.0,   -3.8,   -2.6,   -3.2,   -1.9,   -1.8,   -3.1,   -2.6,   -2.9,   -4.2,   -5.5,   -4.0,   -2.9,   -3.1,  999.0,  999.0,  999.0,  999.0,  999.0,  -29.4,  999.0,  999.0,  -42.0,  999.0,  999.0,  999.0,  999.0,  -41.7,  -41.6,  999.0,  999.0,  -41.4,  999.0,  999.0,  999.0,  999.0,  999.0,  999.0,  999.0,  999.0,  999.0,  999.0,  999.0,  999.0,  999.0,  999.0,  999.0,  999.0,  999.0,  999.0
2005/08/23 09:10,  999.0,    2.0,  999.0,  999.0,    1.2,    2.1,    2.1,  999.0,    0.9,   -0.8,   -0.9,   -2.0,   -2.3,   -2.0,   -1.4,   -1.6,   -1.7,   -1.6,   -2.2,   -2.6,   -3.1,   -3.2,   -0.5,   -1.2,   -5.5,  999.0,  999.0,  999.0,  999.0,  999.0,  999.0,  999.0,  999.0,  -41.3,  -38.6,  -38.9,  -41.4,  -38.6,  -45.9,  -46.0,  -38.7,  -36.0,  -38.4,  -41.6,  -31.5,  -23.1,  -34.6,  -34.2,  -36.0,  -42.9,  999.0,  999.0,  999.0,  999.0,  999.0,  999.0,  999.0,  999.0,  999.0,  999.0,  999.0,  999.0,  999.0
2005/08/23 09:20,  999.0,    1.4,    3.2,    4.2,    2.0,    1.8,    1.6,    2.3,    0.5,   -0.9,   -1.8,   -1.5,   -1.8,   -1.1,   -1.5,   -1.4,   -1.0,   -1.3,   -1.7,   -2.8,   -2.2,   -2.8,  999.0,   -4.3,  999.0,   -5.3,  999.0,  999.0,  999.0,  999.0,  999.0,  999.0,  999.0,  999.0,  999.0,  999.0,  -27.6,  999.0,    0.1,   -0.1,   -0.0,   -0.0,    0.1,  999.0,  999.0,  999.0,  999.0,  999.0,  999.0,  999.0,  999.0,  999.0,  999.0,  999.0,  999.0,  999.0,  999.0,  999.0,  999.0,  999.0,  999.0,  999.0,  999.0
2005/08/23 09:30,  999.0,    1.3,    3.2,    4.0,    2.6,    1.8,    1.7,    0.3,    0.2,   -0.7,   -1.2,   -2.1,   -2.1,   -1.9,   -1.2,   -1.4,   -1.3,   -1.4,   -1.4,   -2.0,   -2.6,   -2.4,   -3.0,   -3.8,   -4.5,   -5.7,  999.0,  999.0,  999.0,  999.0,  999.0,  -27.5,  -13.7,  999.0,  999.0,  999.0,  999.0,  -35.2,  999.0,  999.0,  999.0,  999.0,  999.0,  -32.3,  -32.4,  999.0,  999.0,  999.0,  999.0,  999.0,  999.0,  999.0,  999.0,  999.0,  999.0,  999.0,  999.0,  999.0,  999.0,  999.0,  999.0,  999.0,  999.0
2005/08/23 09:40,  999.0,    1.7,    3.0,    4.5,    3.1,    2.2,    2.4,    1.6,   -0.1,   -0.9,   -1.7,   -2.0,   -2.5,   -2.2,   -2.2,   -3.1,   -2.6,   -2.6,   -2.0,   -2.3,   -2.7,   -2.3,   -3.0,   -4.0,   -4.9,   -5.9,  999.0,  999.0,   -2.9,  999.0,  999.0,  999.0,  999.0,  999.0,  999.0,  999.0,  999.0,  999.0,  999.0,  999.0,  -55.0,  -55.1,  999.0,  999.0,  -44.9,  -47.9,  -44.3,  -44.6,  999.0,  999.0,  999.0,  999.0,  999.0,  999.0,  999.0,  999.0,  999.0,  999.0,  999.0,  999.0,  999.0,  999.0,  999.0
2005/08/23 09:50,  999.0,    1.1,    2.3,    3.0,    3.6,    2.4,    2.2,    2.2,    1.1,   -1.2,   -1.6,   -1.7,   -1.7,   -2.0,   -2.0,   -2.0,   -2.0,  999.0,   -1.6,   -2.8,   -2.9,   -4.0,   -2.3,   -4.7,   -5.8,   -6.0,   -5.9,   -5.1,   -5.5,  999.0,  999.0,  999.0,  999.0,  999.0,  999.0,  999.0,  999.0,  999.0,  999.0,  -55.2,  -55.3,  -55.2,  -55.3,  -55.4,  -55.3,  -55.3,  -55.4,  -55.1,  -55.3,  -55.4,  -55.6,  -55.7,  -55.2,  999.0,  999.0,  999.0,  999.0,  999.0,  999.0,  999.0,  999.0,  999.0,  999.0
2005/08/23 10:00,  999.0,    1.0,    1.8,    2.9,    3.6,    1.9,    2.0,    1.8,    0.9,  999.0,  999.0,    0.5,  999.0,    1.0,   -1.2,   -1.1,  999.0,   -1.1,   -2.7,   -2.8,   -3.3,   -2.0,   -2.4,   -3.9,   -3.7,   -3.9,   -4.0,   -4.0,  999.0,  999.0,  999.0,  999.0,  999.0,  999.0,  999.0,  999.0,  999.0,  999.0,  -55.0,  -55.1,  -55.2,  -55.2,  -55.0,  -55.3,  -55.4,  -55.2,  -55.2,  -55.2,  -55.3,  -55.5,  -55.4,  -55.0,  -55.1,  -55.8,  999.0,  999.0,  999.0,  999.0,  999.0,  999.0,  999.0,  999.0,  999.0
2005/08/23 10:10,  999.0,    0.6,    2.4,  999.0,    2.8,    1.6,    1.9,    1.6,    0.8,   -0.2,   -0.9,   -1.4,   -1.6,   -2.1,   -1.9,  999.0,  999.0,  999.0,  999.0,  999.0,  999.0,  999.0,  999.0,  999.0,  999.0,  999.0,  999.0,  -11.2,  999.0,  999.0,  999.0,  999.0,  999.0,  999.0,  999.0,  999.0,  999.0,  999.0,  999.0,  -20.5,  -20.8,  -16.0,  -21.4,  -17.8,  -28.7,  -43.0,  999.0,  -17.8,  -10.5,  999.0,  999.0,  999.0,  999.0,  999.0,  999.0,  999.0,  999.0,  999.0,  999.0,  999.0,  999.0,  999.0,  999.0
2005/08/23 10:20,  999.0,    1.0,    2.8,    3.4,    3.3,    3.0,    2.3,    1.5,    0.5,   -0.3,   -1.0,   -1.4,   -1.9,   -2.0,   -2.9,  999.0,  999.0,   -2.2,   -4.1,   -5.6,   -3.6,   -3.4,   -4.6,   -4.2,   -4.0,   -4.3,   -4.2,   -4.5,   -6.4,  999.0,  999.0,  999.0,   -6.2,   -6.8,   -7.5,   -7.7,   -8.2,   -8.0,   -7.9,   -8.2,  999.0,   -6.9,  999.0,   -6.4,   -5.9,  999.0,  999.0,   -8.9,   -5.8,  999.0,  999.0,  999.0,  999.0,  999.0,  999.0,  999.0,  999.0,  999.0,  999.0,  999.0,  999.0,  999.0,  999.0
2005/08/23 10:30,  999.0,    0.3,    2.9,  999.0,    2.7,    2.0,    1.7,    1.8,  999.0,  999.0,  999.0,  999.0,  999.0,   -1.7,   -2.4,  999.0,  999.0,  999.0,  999.0,  999.0,   -3.6,   -3.6,   -4.3,   -4.1,   -4.6,   -6.8,   -6.3,   -6.0,   -5.8,   -6.5,   -7.3,   -7.3,   -6.8,   -6.9,   -7.4,   -7.9,   -8.3,   -9.1,   -8.8,  999.0,  999.0,  999.0,  999.0,  999.0,  999.0,  999.0,  999.0,  999.0,  999.0,  999.0,  999.0,  999.0,  999.0,  999.0,  999.0,  999.0,  999.0,  999.0,  999.0,  999.0,  999.0,  999.0,  999.0
2005/08/23 10:40,  999.0,   -0.6,    2.7,  999.0,    1.6,    3.2,    3.9,    1.5,    0.7,    0.3,   -1.4,  999.0,   -1.4,   -2.3,   -2.4,   -2.3,   -2.4,   -2.4,   -1.7,   -2.2,   -2.6,   -2.9,   -2.0,   -3.3,   -4.1,   -4.8,   -5.7,   -6.1,   -6.5,   -7.3,   -8.0,   -7.0,   -5.7,   -5.7,   -6.7,   -7.4,   -7.8,  999.0,  999.0,  999.0,  999.0,  999.0,  999.0,  999.0,  999.0,  999.0,  999.0,    0.2,  999.0,  999.0,  999.0,  999.0,  999.0,  999.0,  999.0,  999.0,  999.0,  999.0,  999.0,  999.0,  999.0,  999.0,  999.0
2005/08/23 10:50,  999.0,    1.3,    4.4,    5.9,    5.5,  999.0,  999.0,  999.0,    0.5,    3.8,   -0.5,   -1.1,   -1.2,   -2.2,   -3.5,   -2.7,   -2.9,   -2.8,   -3.0,   -3.4,   -3.2,   -2.8,   -2.9,   -4.2,   -4.9,   -5.1,   -6.2,   -5.1,  999.0,  999.0,  999.0,   -7.0,   -6.7,   -6.1,   -6.1,   -6.5,   -6.6,   -7.7,  999.0,  999.0,  999.0,  999.0,  999.0,  999.0,  999.0,  999.0,  999.0,  999.0,  999.0,  -55.3,  999.0,  -55.0,  999.0,  999.0,  999.0,  999.0,  999.0,  999.0,  999.0,  999.0,  999.0,  999.0,  999.0
2005/08/23 11:00,  999.0,    0.2,    2.7,    3.5,    3.3,    4.0,    1.8,    2.0,    3.0,   -0.4,   -0.3,   -1.5,   -2.9,   -3.0,   -2.8,   -2.9,   -3.1,   -2.3,   -2.3,   -2.2,   -1.8,   -2.1,   -2.7,   -4.1,   -4.4,  999.0,   -4.9,  999.0,  999.0,  999.0,  999.0,   -6.1,   -6.3,   -6.3,   -6.6,   -6.5,   -6.9,   -6.9,   -6.9,   -6.8,   -6.5,   -6.7,   -6.8,  999.0,  999.0,   -5.6,   -5.9,   -6.6,  -16.6,  -15.6,   -9.1,   -9.4,  999.0,  999.0,  999.0,  999.0,  999.0,  999.0,  999.0,  999.0,  999.0,  999.0,  999.0
2005/08/23 11:10,  999.0,    1.3,    2.3,    4.0,    3.8,    2.4,    1.8,    1.7,    0.2,   -1.5,   -1.9,   -2.4,   -3.0,   -3.2,   -2.8,   -3.3,  999.0,  999.0,   -2.8,  999.0,  999.0,   -3.5,   -4.4,   -5.2,   -5.3,  999.0,   -6.2,  999.0,  999.0,  999.0,  999.0,   -5.6,   -5.4,   -5.1,   -5.8,   -6.3,   -6.2,   -6.8,   -6.6,   -6.6,   -6.5,   -5.8,   -6.1,   -5.4,   -5.4,   -5.7,   -6.5,   -7.5,   -7.9,   -8.9,   -9.6,  -10.4,  -10.9,  -11.4,  -12.1,  -13.2,  -13.7,  -14.0,  999.0,  999.0,  999.0,  999.0,  999.0
2005/08/23 11:20,  999.0,    2.0,    2.3,    3.3,    1.9,    1.4,    1.6,    1.0,   -0.1,   -3.1,   -3.0,   -3.3,   -3.7,   -3.5,   -3.5,   -3.6,   -3.3,   -3.0,   -2.8,   -3.2,   -3.5,   -4.1,   -5.2,   -5.9,   -6.2,   -7.0,   -6.5,  999.0,  999.0,   -5.4,   -5.7,   -6.1,   -5.9,   -5.7,   -5.9,   -6.0,   -6.0,   -6.1,   -6.2,   -6.2,   -6.2,   -6.1,   -6.1,   -5.6,   -5.6,   -5.7,   -6.0,   -6.4,   -7.1,   -7.9,   -8.5,   -9.3,  -10.2,  -10.7,  -11.4,  -12.5,  -13.3,  -14.2,  -14.9,  -15.0,  999.0,  999.0,  999.0
2005/08/23 11:30,  999.0,    2.0,    2.2,    2.9,    3.2,    2.4,    1.8,    0.6,   -0.2,   -1.6,   -2.7,   -3.4,   -3.2,   -2.6,   -2.5,   -2.8,   -2.7,   -2.7,   -2.8,   -2.9,   -3.3,   -4.8,   -5.6,   -6.2,   -6.8,   -7.1,   -5.6,  999.0,  999.0,   -5.4,   -5.9,   -6.3,   -6.1,   -6.3,   -6.1,   -6.0,   -6.1,   -6.2,   -6.7,   -6.6,   -6.4,   -6.0,   -5.9,   -5.5,   -5.3,   -5.5,   -5.7,   -5.9,   -6.2,   -6.1,   -7.5,   -6.5,   -8.4,  999.0,  999.0,  999.0,  999.0,  999.0,  999.0,  999.0,  999.0,  999.0,  999.0
2005/08/23 11:40,  999.0,    1.2,    2.5,    3.1,    3.5,    2.9,    2.2,    1.2,    0.2,   -0.5,    0.1,   -1.7,   -1.2,   -0.2,   -0.6,    0.1,    0.5,   -0.4,   -0.4,   -0.6,   -2.0,   -2.6,   -3.4,   -3.5,   -4.2,   -4.6,   -5.8,  999.0,  999.0,   -4.7,   -4.9,   -5.4,   -5.6,   -5.3,   -4.8,   -3.8,   -3.6,   -3.4,   -3.5,   -4.1,   -4.9,   -4.9,   -5.2,   -5.7,   -5.6,   -5.7,   -6.2,   -6.1,   -7.2,   -7.8,   -6.5,   -8.0,   -7.5,  999.0,  999.0,  999.0,  999.0,  999.0,  999.0,  999.0,  999.0,  999.0,  999.0
2005/08/23 11:50,  999.0,    1.3,    2.7,    3.5,    3.3,    2.3,    1.1,    0.2,   -1.1,   -2.5,   -3.5,   -3.6,   -3.3,   -3.3,   -3.0,   -3.0,   -2.5,   -2.6,   -3.3,   -4.9,   -6.1,   -6.3,   -6.3,   -5.2,   -5.4,   -4.7,   -4.3,  999.0,  999.0,   -4.5,   -5.4,   -3.8,   -2.7,   -2.0,   -1.4,   -1.2,   -1.0,   -1.2,   -2.0,   -3.1,   -4.0,   -4.9,   -4.7,   -5.4,   -6.0,   -6.5,   -6.8,   -7.5,   -7.2,   -7.2,   -7.3,   -7.5,  999.0,  999.0,  999.0,  999.0,  999.0,  999.0,  999.0,  999.0,  999.0,  999.0,  999.0
2005/08/23 12:00,  999.0,    1.2,    2.3,    3.4,    2.5,    2.7,    1.7,    0.7,   -0.4,   -1.9,   -2.7,   -2.9,   -3.5,   -3.1,   -3.6,   -3.5,   -2.7,   -2.5,   -4.0,   -6.1,   -7.3,   -7.1,   -7.2,   -6.8,   -7.3,   -7.3,  999.0,  999.0,  999.0,   -7.4,   -6.2,   -5.7,   -5.2,   -5.1,   -4.2,   -3.5,   -2.7,   -2.3,   -4.3,   -3.7,   -5.9,   -7.4,  999.0,   -9.0,  999.0,  999.0,   -7.4,   -7.2,   -7.7,   -7.6,   -8.7,  999.0,  999.0,  999.0,  999.0,  999.0,  999.0,  999.0,  999.0,  999.0,  999.0,  999.0,  999.0
2005/08/23 12:10,  999.0,    1.4,    2.3,    3.5,    2.8,    2.1,    1.4,    1.0,    0.2,   -1.6,   -2.2,   -2.2,   -2.7,   -2.9,   -2.2,   -2.2,   -2.6,   -1.9,   -2.6,   -4.6,   -5.2,   -6.0,   -5.8,   -5.4,   -5.6,   -5.1,  999.0,  999.0,  999.0,   -5.8,   -4.9,   -3.8,   -3.4,   -3.5,   -3.8,   -4.0,   -3.9,   -3.8,   -3.8,   -4.0,   -4.6,   -5.6,   -6.9,   -7.6,   -8.2,   -8.6,   -8.5,   -7.8,   -8.0,   -8.4,   -8.8,   -9.5,  999.0,  999.0,  999.0,  999.0,  999.0,  999.0,  999.0,  999.0,  999.0,  999.0,  999.0
2005/08/23 12:20,  999.0,    1.0,    2.4,    3.9,    2.5,    2.1,    1.3,    1.0,   -0.7,   -2.9,   -2.4,   -2.3,   -3.3,   -4.1,   -3.2,   -2.9,   -3.1,   -2.5,   -2.2,   -3.4,   -3.4,   -3.7,   -4.0,   -4.3,   -4.6,   -5.7,   -5.3,  999.0,   -6.6,   -5.2,   -4.4,   -3.8,   -3.2,   -2.8,   -3.8,   -4.8,   -5.4,   -5.3,   -4.5,   -4.2,   -4.5,   -5.6,   -6.2,   -6.6,   -7.0,   -7.6,  999.0,   -6.8,   -6.6,   -9.7,   -9.1,   -7.6,  999.0,  999.0,  999.0,  999.0,  999.0,  999.0,  999.0,  999.0,  999.0,  999.0,  999.0
2005/08/23 12:30,  999.0,    1.2,    2.2,    4.2,    3.2,    1.8,    0.8,    0.9,   -0.8,   -2.2,   -2.4,   -2.6,   -2.8,   -3.7,   -3.1,   -3.5,   -3.4,   -3.3,   -3.0,   -4.4,   -4.8,   -5.3,   -5.2,   -5.3,   -5.3,   -5.7,   -5.5,   -6.0,   -5.2,   -4.1,   -4.2,   -3.0,   -3.2,   -3.7,   -3.4,   -3.2,   -3.4,   -4.5,   -5.4,   -6.0,   -6.0,   -5.3,   -6.1,   -6.7,   -7.0,   -7.4,   -7.4,   -6.9,   -7.2,   -7.9,   -9.3,  -10.2,  -11.0,  -13.4,  999.0,  999.0,  999.0,  999.0,  999.0,  999.0,  999.0,  999.0,  999.0
2005/08/23 12:40,  999.0,    1.8,    4.4,    7.0,    3.3,    1.5,    0.8,    0.1,   -0.3,   -1.6,   -2.3,   -2.8,   -3.3,   -3.3,   -2.9,   -3.1,   -2.9,   -2.4,   -3.3,   -4.4,   -5.2,   -4.3,   -4.8,   -5.6,   -5.6,   -6.0,   -5.9,   -5.3,   -4.8,   -4.0,   -4.2,   -4.4,   -4.1,   -4.4,   -4.2,   -3.9,   -3.6,   -3.7,   -4.7,   -5.9,   -6.1,   -6.2,   -6.6,   -7.5,   -7.9,   -7.7,   -7.4,   -7.9,   -8.3,  999.0,  999.0,  999.0,  999.0,  999.0,  999.0,  999.0,  999.0,  999.0,  999.0,  999.0,  999.0,  999.0,  999.0
2005/08/23 12:50,  999.0,  999.0,  999.0,    3.9,    2.6,    1.6,    1.6,    0.3,   -0.3,   -1.3,   -2.5,   -3.2,   -3.5,   -3.6,   -3.8,   -3.0,   -2.7,   -3.0,   -3.8,   -4.4,   -4.5,   -4.6,   -4.7,   -5.1,   -5.0,   -5.1,   -5.9,   -5.6,   -5.1,  999.0,  999.0,   -4.8,   -3.8,   -4.0,   -3.2,   -2.6,   -4.0,   -3.9,   -4.8,   -4.2,  999.0,   -4.4,   -5.6,   -5.4,   -6.3,   -7.3,   -7.7,   -8.5,  999.0,  999.0,  999.0,  999.0,  999.0,  999.0,  999.0,  999.0,  999.0,  999.0,  999.0,  999.0,  999.0,  999.0,  999.0
2005/08/23 13:00,  999.0,    1.0,    4.5,    4.3,    4.1,    1.1,    1.4,   -0.4,   -0.8,   -0.5,   -1.6,   -1.9,   -3.1,   -2.8,   -1.1,   -1.9,   -2.1,   -3.1,   -3.6,   -1.9,   -4.0,   -5.1,   -5.1,   -5.9,   -6.0,   -5.9,   -6.3,   -5.2,   -5.4,   -5.5,   -5.7,   -5.8,  999.0,   -3.0,   -3.3,  999.0,   -4.9,  999.0,   -4.9,  999.0,  999.0,   -4.5,   -4.5,   -5.6,   -6.7,   -7.1,   -7.0,   -8.0,   -8.3,   -8.0,   -9.5,  999.0,  999.0,  999.0,  999.0,  999.0,  999.0,  999.0,  999.0,  999.0,  999.0,  999.0,  999.0
2005/08/23 13:10,  999.0,    1.4,    2.4,    2.3,    3.3,    1.6,    0.9,   -0.1,   -0.7,   -1.2,   -2.3,   -2.6,   -3.2,   -3.4,   -3.0,  999.0,   -3.2,   -4.2,   -4.9,   -3.7,   -5.2,   -6.4,   -6.7,  999.0,   -8.2,   -5.1,   -4.7,   -4.5,   -4.2,   -4.1,   -4.0,  999.0,  999.0,  999.0,  999.0,  999.0,  999.0,  999.0,  999.0,  999.0,  999.0,  999.0,   -3.9,   -4.9,   -6.2,   -6.9,   -5.7,    0.5,   -6.7,   -7.8,  999.0,  999.0,  999.0,  999.0,  999.0,  999.0,  999.0,  999.0,  999.0,  999.0,  999.0,  999.0,  999.0
2005/08/23 13:20,  999.0,    0.8,    2.4,    3.6,    3.3,    2.5,    0.6,  999.0,   -0.7,   -1.7,   -1.5,   -2.2,   -3.1,   -3.5,   -3.0,   -3.3,   -4.0,   -4.2,   -4.9,   -5.3,   -6.0,   -6.4,   -5.8,   -5.4,   -6.3,   -4.8,   -4.4,   -4.6,   -4.5,   -3.9,  999.0,  999.0,  999.0,  -15.7,  999.0,  -15.8,  999.0,  999.0,  999.0,  999.0,  999.0,  999.0,  999.0,  -31.3,  999.0,  999.0,   -5.3,  999.0,  999.0,  999.0,  999.0,    1.5,   -8.4,  999.0,  999.0,  999.0,   -9.6,  -10.4,  -10.8,  -10.9,  -11.4,  999.0,  999.0
2005/08/23 13:30,  999.0,    0.7,    2.0,    3.5,    3.6,    2.7,  999.0,  999.0,  999.0,  999.0,  999.0,  999.0,  999.0,  999.0,  999.0,  999.0,   -6.4,   -5.7,   -6.3,  999.0,   -6.4,   -6.6,   -7.4,  999.0,  999.0,  999.0,  999.0,  999.0,  999.0,  999.0,  999.0,  999.0,  999.0,  999.0,  999.0,  999.0,  999.0,  999.0,  999.0,  999.0,  999.0,  999.0,  999.0,  -31.7,  -32.5,  -33.6,  -33.5,  999.0,  999.0,  999.0,  999.0,   -8.4,   -8.1,   -7.8,   -8.8,   -9.6,  -10.4,  -10.9,  -10.8,  -11.8,  -12.2,  999.0,  999.0
2005/08/23 13:40,  999.0,    2.0,    2.8,    3.5,    4.4,    2.9,    1.1,   -0.9,   -0.5,   -0.3,   -1.4,   -3.1,   -2.7,   -3.2,   -2.9,   -3.0,   -3.5,   -4.3,   -5.4,   -6.3,   -6.6,   -6.5,   -5.6,   -5.7,  999.0,  999.0,  999.0,  999.0,  999.0,  999.0,  999.0,  999.0,  999.0,  999.0,  999.0,  999.0,  999.0,   -4.9,  999.0,   -3.9,  999.0,  999.0,  999.0,   -3.7,   -5.8,   -6.7,   -7.7,   -8.2,   -8.3,   -8.3,   -8.5,   -7.7,   -7.8,   -8.1,   -9.2,  -10.0,   -9.6,  -10.6,  -10.9,  -11.3,  -12.9,  999.0,  999.0
2005/08/23 13:50,  999.0,    0.1,    2.1,    2.6,    3.5,    3.4,    1.1,   -0.2,   -0.9,   -0.5,  999.0,   -2.7,   -2.7,   -2.7,   -2.8,   -2.2,   -3.7,   -5.3,   -5.6,   -5.9,   -6.0,   -6.0,   -5.8,   -5.3,   -5.7,  999.0,  999.0,  999.0,  999.0,  999.0,  999.0,  999.0,  999.0,  999.0,  999.0,  999.0,  999.0,  999.0,  999.0,  999.0,  999.0,   -3.1,   -3.2,   -3.8,   -4.7,   -6.1,   -6.7,   -7.5,   -8.0,   -8.8,   -9.2,   -9.9,   -9.8,   -9.6,   -9.9,   -9.4,   -9.9,  -10.7,  -11.4,  999.0,  999.0,  999.0,  999.0
2005/08/23 14:00,  999.0,    0.9,    2.1,    2.5,    3.2,    2.9,    0.7,   -0.1,   -0.8,   -0.2,   -0.8,   -2.8,   -2.8,   -3.3,   -3.0,   -2.9,   -4.2,   -5.4,   -6.1,   -5.9,   -5.7,   -5.8,   -6.1,  999.0,   -5.6,  999.0,  999.0,  999.0,  999.0,  999.0,  999.0,  999.0,  999.0,  999.0,  999.0,  999.0,  999.0,   -2.8,  999.0,   -3.2,   -2.6,   -3.4,   -3.1,   -3.1,   -4.8,   -6.1,   -7.0,   -7.9,   -8.3,   -8.8,   -8.7,   -8.3,   -8.2,   -7.7,   -8.4,   -8.3,  -10.6,  999.0,  999.0,  999.0,  999.0,  999.0,  999.0
2005/08/23 14:10,  999.0,    0.2,    2.8,    3.0,    3.3,    3.0,    1.3,   -0.0,   -1.0,   -0.1,   -0.9,   -2.8,   -2.9,   -3.2,   -2.6,   -2.8,   -4.0,   -5.3,   -6.3,   -5.9,   -6.3,   -5.8,   -5.8,   -5.9,   -5.4,   -4.2,  999.0,  999.0,  999.0,  999.0,  999.0,  999.0,  999.0,  999.0,   -5.0,   -5.9,  999.0,   -5.7,   -5.7,   -3.8,   -2.4,   -0.9,   -3.1,   -4.6,   -7.5,   -8.3,   -8.7,   -9.0,   -8.5,   -8.6,   -8.3,   -8.7,   -8.5,   -8.7,   -9.9,  999.0,  999.0,  999.0,  999.0,  999.0,  999.0,  999.0,  999.0
2005/08/23 14:20,  999.0,    0.4,    2.7,    2.5,    3.4,    3.2,  999.0,    0.0,   -0.5,    0.4,    0.1,   -2.1,   -3.3,   -3.3,   -2.7,   -2.5,   -3.6,   -5.2,   -5.8,   -6.1,   -6.2,  999.0,  999.0,  999.0,  999.0,  999.0,  999.0,  999.0,  999.0,  999.0,  999.0,  999.0,  999.0,  999.0,  999.0,  999.0,  999.0,  999.0,  999.0,   -2.7,   -3.1,   -2.8,   -4.5,   -6.6,   -8.3,   -8.8,   -9.2,   -9.3,   -9.0,   -8.9,   -9.0,   -9.3,  -10.0,  999.0,  999.0,  999.0,  999.0,  999.0,  999.0,  999.0,  999.0,  999.0,  999.0
2005/08/23 14:30,  999.0,    1.4,    1.8,    2.3,    2.2,    2.8,    0.8,   -0.2,   -1.2,   -0.6,   -1.2,   -2.8,   -3.3,   -3.1,   -2.9,   -2.7,   -3.5,   -4.4,   -5.6,   -5.6,   -6.2,   -9.2,   -7.4,   -6.8,   -7.4,   -9.1,   -5.2,   -4.1,   -2.5,   -3.4,   -3.7,   -4.2,   -3.6,   -4.6,   -4.0,  999.0,   -3.6,   -3.0,   -2.3,   -1.4,   -1.9,   -3.8,   -6.6,   -8.2,   -8.4,   -8.8,   -9.1,   -9.4,   -9.7,   -9.7,  -10.3,  -10.5,  999.0,  999.0,  999.0,  999.0,  999.0,  999.0,  999.0,  999.0,  999.0,  999.0,  999.0
2005/08/23 14:40,  999.0,    0.1,    1.4,    2.1,    2.8,    1.4,    0.6,   -0.1,  999.0,  999.0,  999.0,   -7.2,  999.0,  999.0,  999.0,   -4.1,   -4.7,   -3.1,   -7.0,  999.0,  999.0,  999.0,  999.0,  999.0,  999.0,  999.0,  999.0,   -4.8,   -2.4,   -2.9,   -2.0,   -2.4,   -4.6,   -5.2,   -3.0,   -2.0,   -2.4,   -3.7,   -2.1,   -2.6,   -3.6,   -4.6,   -6.9,   -8.7,   -9.7,  -10.0,   -9.5,   -9.1,   -9.3,   -9.9,  -10.5,  -10.7,  -10.2,   -9.7,  999.0,  -10.7,  999.0,  999.0,  999.0,  999.0,  999.0,  999.0,  999.0
2005/08/23 14:50,  999.0,    0.6,    2.2,    2.1,    1.5,    3.1,  999.0,   -0.0,  999.0,  999.0,  999.0,  999.0,   -0.0,  999.0,  999.0,   -3.1,   -4.2,   -4.8,  999.0,   -4.1,   -3.7,  999.0,  999.0,   -6.1,   -6.1,   -4.1,   -3.7,   -2.2,   -1.9,   -3.1,   -2.3,   -2.1,   -3.2,   -4.5,   -1.5,   -3.3,   -2.7,   -1.7,   -1.8,   -2.4,   -4.2,   -5.7,   -8.2,  -10.9,  -10.3,  -10.0,   -9.7,   -9.6,   -9.2,   -9.5,   -9.6,   -9.8,  -10.0,  -10.0,   -9.8,  -10.0,  -10.9,  -10.7,  -11.0,  -11.1,  -11.6,  -11.9,  -13.1
2005/08/23 15:00,  999.0,    1.0,    3.6,    2.6,    2.4,    2.2,    0.9,   -0.4,   -0.3,  999.0,   -3.1,   -3.3,   -3.5,   -4.0,   -3.3,   -4.0,   -4.7,   -5.1,   -5.4,   -5.6,   -6.1,   -6.3,   -6.5,   -4.7,  999.0,  999.0,  999.0,   -2.1,  999.0,   -1.9,  999.0,   -1.4,   -0.7,  999.0,  999.0,   -1.6,   -2.1,   -1.4,   -1.3,   -1.5,   -2.1,   -3.6,   -4.7,   -6.7,   -9.2,   -9.9,   -9.6,   -9.4,   -9.6,   -9.9,   -9.7,   -9.4,   -9.5,   -9.8,  -10.0,   -9.8,   -9.6,   -9.5,   -9.5,   -9.8,  -10.4,  -11.4,  -12.7
2005/08/23 15:10,  999.0,    1.4,    2.0,    2.1,    2.6,    2.4,    1.2,    0.2,   -0.5,   -1.2,   -2.8,   -3.3,   -3.7,   -3.3,   -3.4,   -3.8,   -4.5,   -4.5,   -4.9,   -5.2,   -5.4,   -5.8,   -5.3,   -4.4,  999.0,   -3.4,  999.0,   -3.1,  999.0,  999.0,  999.0,  999.0,  999.0,  999.0,    1.0,   -0.9,   -2.6,   -2.2,   -1.0,   -0.2,   -1.1,   -2.6,   -4.4,   -6.8,   -8.8,   -9.4,   -9.3,   -9.3,   -9.5,   -9.5,   -9.3,   -9.4,   -9.9,  -10.3,  -10.2,   -9.9,   -9.9,   -9.7,  -10.2,  -10.8,  -11.3,  -12.5,  -12.5
2005/08/23 15:20,  999.0,    0.3,    2.3,    2.1,    2.1,    1.7,    1.8,    0.3,   -0.6,   -1.0,   -2.5,   -3.1,   -2.5,   -3.0,  999.0,   -3.8,   -4.3,   -4.4,   -4.6,   -4.7,   -4.8,   -5.1,   -5.0,   -4.6,   -4.1,   -4.2,   -3.9,  999.0,  999.0,  999.0,   -2.6,  999.0,   -1.9,   -1.7,   -2.8,   -2.5,   -1.5,   -1.8,   -1.6,   -1.3,  999.0,  999.0,   -4.6,   -6.2,   -8.5,   -9.6,   -9.6,   -9.6,   -9.6,   -9.6,   -9.6,   -9.9,  -10.1,   -9.8,   -9.7,   -9.8,   -9.7,  -10.4,  -10.4,  -10.9,  -12.0,  -12.8,  -13.0
2005/08/23 15:30,  999.0,    1.2,    1.8,    2.2,    2.1,    2.2,    1.9,    0.4,    0.1,   -1.8,   -2.9,   -2.6,   -2.6,   -2.9,   -3.6,   -3.9,   -4.5,   -4.7,   -5.1,   -5.2,   -5.2,   -5.5,   -5.5,   -5.0,  999.0,   -4.4,   -4.4,  999.0,  999.0,  999.0,   -1.5,  999.0,   -1.4,   -1.3,   -1.6,   -2.0,   -1.4,   -0.9,   -0.2,   -0.2,   -0.2,   -1.5,   -3.1,   -5.7,   -8.5,   -9.0,   -9.2,   -9.6,   -9.9,   -9.9,  -10.0,   -9.8,   -9.8,   -9.9,   -9.5,   -9.6,   -9.9,  -10.2,  -10.5,  -10.9,  -11.5,  -12.1,  -12.9
2005/08/23 15:40,  999.0,    2.1,    1.7,    2.5,    2.6,    2.1,    1.6,    0.9,    0.5,   -1.6,   -2.4,   -3.2,   -2.6,   -2.7,   -3.5,   -3.6,   -3.9,   -4.3,   -4.8,   -4.9,   -4.9,   -4.8,   -5.0,  999.0,   -4.9,   -2.9,  999.0,  999.0,  999.0,  999.0,   -1.1,   -2.6,   -1.5,   -1.1,   -1.4,   -1.0,  999.0,  999.0,   -4.2,   -1.8,   -2.1,   -1.5,   -2.9,   -7.1,   -9.8,  -10.4,  -10.3,  -10.5,  -10.7,  -10.7,  -10.6,  -10.6,  -10.7,  -10.5,  -10.6,  -11.0,  -10.8,  -10.9,  -11.3,  -11.4,  -11.4,  -12.3,  -12.8
2005/08/23 15:50,  999.0,    1.0,    1.8,    2.1,    2.6,    2.1,    1.7,    0.9,    0.7,   -0.2,   -2.8,  999.0,   -2.8,  999.0,   -3.1,   -3.5,   -4.0,   -4.1,   -4.7,   -4.9,   -5.4,   -5.4,   -5.5,   -5.6,  999.0,  999.0,   -4.8,   -5.4,   -3.0,   -2.3,  999.0,   -2.6,   -1.3,   -1.1,   -1.6,   -3.3,   -2.8,   -3.8,   -2.4,   -2.4,   -1.4,   -2.3,   -4.4,   -7.7,   -9.3,   -9.7,  -10.0,  -10.4,  -10.8,  -11.1,  -11.3,  -11.4,  -11.6,  -11.7,  -11.9,  -11.8,  -11.8,  -12.0,  -11.7,  -12.4,  999.0,  999.0,  999.0
2005/08/23 16:00,  999.0,   -0.5,    1.7,    1.2,    2.3,    2.2,    1.3,    1.1,    0.4,    0.9,   -2.1,   -2.7,   -2.6,   -2.7,   -2.9,   -3.3,   -4.1,   -4.6,   -5.4,   -5.7,   -5.6,   -5.7,   -5.2,   -5.0,   -3.9,   -4.1,   -3.5,   -2.8,   -2.2,   -2.6,   -2.3,   -0.9,   -2.3,   -1.3,   -2.4,   -2.9,   -2.8,   -2.2,   -1.6,   -1.4,   -1.9,   -3.3,   -6.2,   -9.3,  -10.3,  -10.7,  -11.2,  -11.4,  -11.4,  -11.5,  -11.3,  -11.4,  -11.3,  -11.2,  -11.3,  -11.8,  -11.9,  999.0,  999.0,  999.0,  999.0,  999.0,  999.0
2005/08/23 16:10,  999.0,    0.5,    2.1,    2.5,    2.3,    2.1,    1.3,    1.0,    0.1,   -0.1,   -2.1,   -2.8,   -2.5,   -2.8,   -3.3,   -3.4,   -4.4,   -4.6,   -5.2,   -5.4,   -5.5,   -5.2,  999.0,   -4.9,   -4.4,   -4.9,   -4.0,   -3.5,   -3.5,   -2.1,   -1.9,   -1.3,   -0.1,   -2.1,   -1.7,   -2.2,   -2.1,   -1.2,   -0.7,   -1.0,   -1.2,   -3.2,   -6.2,   -8.5,   -9.3,  -10.0,  -10.0,  -10.1,  -10.9,  999.0,  999.0,  999.0,  999.0,  999.0,  999.0,  999.0,  999.0,  999.0,  999.0,  999.0,  999.0,  999.0,  999.0
2005/08/23 16:20,  999.0,    0.7,    1.1,    1.8,    2.0,    2.2,    1.5,    0.8,    0.1,   -0.2,   -2.1,   -3.1,   -2.8,   -2.9,   -3.4,   -3.6,   -4.4,   -4.6,   -5.7,   -5.7,   -5.2,   -5.1,   -5.2,   -4.5,   -4.5,  999.0,   -3.9,   -2.9,  999.0,  999.0,  999.0,  999.0,  999.0,  999.0,  999.0,  999.0,  999.0,  999.0,   -2.5,   -2.3,   -1.6,   -4.0,   -7.0,   -8.8,  -10.0,  -10.7,  -11.1,  -10.7,  -11.0,  -10.6,  999.0,  999.0,  999.0,  999.0,  999.0,  999.0,  999.0,  999.0,  999.0,  999.0,  999.0,  999.0,  999.0
2005/08/23 16:30,  999.0,    0.2,    0.9,    2.1,    1.9,    1.6,    0.9,    0.5,    0.5,   -0.7,   -2.0,   -2.2,   -2.3,   -2.6,   -2.9,   -3.4,   -4.1,   -4.8,   -4.7,   -5.4,   -5.1,   -4.6,  999.0,   -4.9,   -4.3,   -3.9,   -3.0,   -2.6,   -2.0,   -1.6,   -1.3,   -2.2,   -1.9,  999.0,   -2.1,   -0.1,   -0.6,   -0.4,   -0.8,   -1.0,   -1.8,   -4.3,   -7.6,   -9.0,  -10.0,   -9.8,  -10.3,  -10.8,  -11.0,  -11.0,  -11.5,  -11.0,  -11.4,  -11.5,  -12.1,  999.0,  999.0,  999.0,  999.0,  999.0,  999.0,  999.0,  999.0
2005/08/23 16:40,  999.0,    0.3,    0.9,    1.3,    1.5,    1.6,    1.0,    0.6,    0.1,   -0.5,   -1.8,  999.0,   -2.2,   -2.7,   -2.6,   -3.0,   -4.0,   -4.7,   -4.5,   -4.5,   -4.8,   -5.1,   -5.3,   -5.6,   -5.3,   -4.6,   -4.4,   -3.6,   -3.2,   -1.8,   -1.7,   -2.8,   -2.4,  999.0,  999.0,   -1.5,   -0.0,    0.1,   -0.8,   -1.1,   -3.0,   -6.1,   -8.8,  -10.1,  -10.4,  -10.4,  -10.8,  -10.9,  -11.5,  -11.6,  -11.8,  -11.8,  -11.4,  -11.4,  -11.9,  -12.8,  -12.4,  999.0,  999.0,  999.0,  999.0,  999.0,  999.0
2005/08/23 16:50,  999.0,    0.7,    1.8,    1.8,    1.6,    0.9,    0.9,    0.6,    0.6,   -0.9,  999.0,   -1.8,   -1.9,   -2.2,   -2.4,   -3.3,   -4.1,   -4.6,   -5.0,   -6.1,   -5.5,   -5.7,  999.0,  999.0,  999.0,  999.0,   -3.9,  999.0,  999.0,   -0.9,  999.0,  -29.6,  999.0,  -30.5,  999.0,  999.0,    0.2,    1.2,  999.0,  999.0,   -2.3,   -5.3,   -8.1,   -9.0,   -9.2,   -9.6,   -9.5,   -9.8,   -9.8,  -10.7,  -11.3,  -11.4,  -11.5,  -11.6,  -11.7,  -11.4,  -11.8,  -12.4,  999.0,  999.0,  999.0,  999.0,  999.0
2005/08/23 17:00,  999.0,    0.4,    2.0,    2.5,    2.5,    1.6,    0.7,   -0.0,   -0.0,   -0.7,   -1.3,   -2.0,   -2.1,   -2.3,   -2.8,   -3.5,   -4.2,   -4.7,   -5.3,   -6.1,   -6.3,   -5.1,  999.0,  999.0,  999.0,   -2.9,  999.0,  999.0,   -1.5,   -1.4,  -16.6,  -30.2,  999.0,  -21.2,  -21.8,   -8.2,    0.3,   -0.3,   -1.8,  999.0,  999.0,   -5.6,   -8.4,   -7.5,   -8.1,   -8.4,   -8.5,   -8.7,   -9.1,   -9.7,  -10.6,  -11.0,  -10.8,  -11.3,  -11.6,  -11.5,  -12.0,  999.0,  999.0,  999.0,  999.0,  999.0,  999.0
2005/08/23 17:10,  999.0,    0.8,    2.2,    2.3,    1.5,    1.3,    0.7,   -0.1,    0.2,   -1.0,   -1.4,   -2.4,   -2.1,   -2.2,   -2.6,   -2.8,   -3.6,   -3.9,   -5.3,   -5.6,   -5.1,   -5.7,   -5.4,  999.0,   -4.6,   -3.7,  999.0,   -1.9,  999.0,   -2.0,  999.0,   -1.3,  999.0,  999.0,  999.0,   -1.8,   -1.3,   -0.6,   -1.0,   -1.5,   -3.4,   -6.3,   -9.1,   -9.9,   -9.8,   -9.6,   -9.8,  -10.1,  -10.5,  -11.0,  999.0,  999.0,  999.0,  999.0,  999.0,  999.0,  999.0,  999.0,  999.0,  999.0,  999.0,  999.0,  999.0
2005/08/23 17:20,  999.0,    0.2,    1.2,    2.2,    1.1,    0.8,    0.2,   -0.0,    0.0,   -0.4,   -0.5,  999.0,   -1.6,   -1.6,   -1.9,   -2.4,   -2.7,   -3.3,   -4.7,   -6.3,   -5.4,   -5.7,   -5.8,   -5.2,   -4.7,   -4.1,   -2.5,   -1.6,  999.0,   -2.4,   -2.1,   -0.6,   -2.5,   -0.5,   -0.4,   -0.2,    1.1,    1.5,    0.7,   -0.6,   -3.7,   -6.3,   -8.3,   -8.4,   -8.6,   -8.6,   -8.5,   -8.3,  999.0,  999.0,  999.0,  999.0,  999.0,  999.0,  999.0,  999.0,  999.0,  999.0,  999.0,  999.0,  999.0,  999.0,  999.0
2005/08/23 17:30,  999.0,    0.9,    2.6,    1.9,    2.2,    1.1,    0.6,    0.4,   -0.0,   -0.6,   -0.5,   -1.7,   -2.1,   -1.9,   -2.7,   -3.2,   -3.9,   -4.0,   -4.7,   -5.6,   -5.0,   -4.9,   -5.5,   -5.3,   -4.7,  999.0,  999.0,   -1.3,   -3.2,   -2.3,   -1.2,   -0.5,   -2.2,   -1.3,   -0.6,    0.2,   -0.1,    0.7,   -0.1,   -1.6,   -4.3,   -7.2,   -9.0,  -10.0,  -10.3,   -9.9,  -10.0,   -9.6,   -9.3,   -9.2,  -10.1,  -10.4,  -10.8,  -10.7,  -10.7,  -10.2,  999.0,  999.0,  -10.1,  -10.0,   -9.7,  999.0,  999.0
2005/08/23 17:40,  999.0,    0.5,    2.3,    2.2,    1.8,    1.6,    0.3,    0.4,    0.2,   -0.4,   -0.3,   -1.2,   -2.4,   -2.6,   -3.8,   -3.4,   -4.0,   -4.5,   -4.9,   -5.6,   -5.5,   -5.8,   -6.4,  999.0,   -5.6,   -4.7,  999.0,   -2.8,   -3.3,   -2.6,   -1.6,  999.0,  999.0,  999.0,    0.6,    1.1,    1.1,    1.1,    1.3,   -0.6,   -3.3,   -5.6,   -7.5,   -9.0,   -9.5,   -9.5,   -9.5,   -9.5,   -9.5,  -10.2,  -10.7,  -11.0,  -11.2,  -11.3,  -10.8,  -10.2,   -9.3,   -9.2,  999.0,  999.0,  999.0,  999.0,  999.0
2005/08/23 17:50,  999.0,    1.2,    2.0,    0.5,    1.2,    0.3,   -0.1,    0.4,   -0.1,   -0.3,   -0.8,   -1.6,   -1.6,   -2.2,   -2.7,   -3.3,   -3.7,   -4.4,   -4.5,   -4.9,   -4.8,   -4.8,   -5.0,  999.0,  999.0,   -3.4,  999.0,   -1.7,   -0.9,   -0.8,   -0.3,   -0.5,  999.0,    0.5,    0.7,    0.7,    0.7,    0.5,    0.5,   -0.3,   -1.9,   -3.8,   -6.4,   -8.5,   -9.2,   -9.4,   -9.7,   -9.4,   -9.2,   -9.6,  -10.0,  -10.2,  -10.2,  -10.3,  -10.0,  -10.3,   -9.6,  999.0,  999.0,  999.0,  999.0,  999.0,  999.0
2005/08/23 18:00,  999.0,    1.5,    2.2,    1.6,    2.0,    0.2,   -0.2,    0.3,    0.4,   -0.5,   -1.2,   -1.9,   -2.2,   -2.4,   -2.6,   -3.1,   -3.9,   -4.6,   -4.6,  999.0,   -4.9,   -5.1,  999.0,  999.0,   -4.6,   -4.0,  999.0,   -2.2,   -1.7,   -0.4,   -0.2,    0.3,    1.2,    0.8,   -0.0,   -0.7,    0.8,    1.4,    1.0,   -0.8,   -2.9,   -5.1,   -8.1,   -9.0,  -10.0,  -10.2,  -10.1,   -9.4,   -9.7,  -10.2,  -10.6,  999.0,  999.0,  -10.8,  -10.3,  -10.9,  999.0,  999.0,  999.0,  999.0,  999.0,  999.0,  999.0
2005/08/23 18:10,  999.0,    1.2,    3.0,    2.0,    1.8,   -0.3,   -0.0,    0.5,    0.3,   -0.1,   -1.4,   -1.9,   -2.3,   -2.4,   -2.6,   -2.5,   -3.7,   -4.6,   -4.5,   -4.5,   -4.5,   -5.3,   -2.9,  999.0,   -3.8,   -1.5,   -0.6,   -0.4,    0.4,    2.3,    2.0,    1.1,    0.8,    1.2,    0.7,    0.8,    0.8,    0.2,   -0.6,   -1.8,   -4.4,   -6.9,   -8.3,   -9.1,   -9.5,   -9.8,   -9.7,   -9.8,   -9.7,   -9.9,  -10.6,  -10.9,   -9.6,   -9.4,   -9.5,   -9.5,  -10.3,   -8.9,  999.0,  999.0,  999.0,  999.0,  999.0
2005/08/23 18:20,  999.0,    2.0,    3.8,    3.3,    2.5,    1.0,    0.6,    0.2,    0.0,   -0.8,   -1.9,   -2.6,   -2.2,   -2.3,   -2.7,   -3.2,   -3.9,   -4.1,   -4.6,   -5.0,   -4.8,   -5.6,   -5.5,  999.0,   -3.2,   -2.2,   -1.1,    0.5,   -2.3,   -2.7,    1.0,    0.1,   -0.5,    0.5,    0.0,   -0.2,   -0.2,   -0.5,   -0.9,   -2.0,   -4.0,   -6.6,   -8.5,   -8.9,   -9.4,   -9.9,   -9.6,   -9.3,   -9.3,   -9.7,  -10.1,   -9.8,   -9.9,   -9.5,   -9.3,   -9.4,   -9.4,   -9.0,   -9.4,   -9.3,   -9.1,   -9.1,   -9.1
2005/08/23 18:30,  999.0,    3.1,    4.8,    4.3,    3.5,    2.5,    0.8,   -0.7,    0.1,    0.1,   -0.4,   -2.2,   -2.9,   -2.3,   -2.6,   -3.7,   -4.1,   -4.4,   -4.6,   -4.9,   -5.5,   -5.0,  999.0,  999.0,   -2.3,   -1.2,   -0.0,    0.7,   -0.4,  999.0,   -0.8,    1.0,    0.5,    0.1,    0.5,   -0.0,    0.4,   -0.1,   -0.3,   -0.8,   -3.0,   -5.5,   -7.2,   -8.0,   -8.7,   -9.5,   -9.7,   -9.7,   -9.4,   -9.6,  -10.2,  -10.3,   -9.6,   -9.7,  -10.2,  -10.0,   -9.7,   -9.6,   -9.2,   -9.5,   -9.2,   -8.8,   -8.9
2005/08/23 18:40,  999.0,    2.4,    4.9,    3.8,    3.3,    2.1,    1.2,    1.2,    0.9,    0.4,    0.2,   -0.9,   -2.1,   -2.1,   -2.3,   -3.6,   -4.3,   -4.6,   -4.9,   -5.8,   -6.5,  999.0,  999.0,   -3.1,   -2.9,   -1.5,   -0.6,   -0.9,   -0.6,   -0.2,    1.5,    0.4,   -0.0,    0.2,    0.3,    0.9,    0.2,   -0.2,   -0.4,   -0.9,   -2.4,   -4.8,   -6.6,   -7.3,   -8.8,   -9.7,  -10.2,  -10.2,  -10.0,   -9.6,   -9.8,   -9.8,   -9.8,   -9.9,  -10.2,  -10.2,  -10.1,  -10.0,  -10.0,  -10.0,   -9.7,   -9.6,   -9.4
2005/08/23 18:50,  999.0,    3.0,    6.2,    4.2,    3.0,    0.8,    0.5,    1.5,    1.8,    1.4,    1.0,   -0.5,   -1.5,   -2.0,   -2.7,   -4.0,   -4.6,   -4.6,   -4.9,   -5.5,   -6.2,   -3.8,  999.0,   -0.8,   -2.7,   -1.3,   -1.4,   -0.4,   -1.6,   -0.6,   -0.4,   -0.2,   -0.7,   -0.8,   -0.8,   -0.4,   -0.4,    0.3,    0.2,   -0.4,   -1.3,   -4.7,   -6.2,   -6.2,   -8.3,   -9.2,   -9.4,   -9.7,   -9.7,   -9.5,   -9.6,   -9.8,   -9.9,   -9.9,   -9.5,   -9.2,   -9.2,   -9.2,   -9.1,   -8.9,   -9.0,   -8.9,   -9.0
2005/08/23 19:00,  999.0,  999.0,    4.8,    4.1,    3.9,    1.2,    0.5,    1.3,    1.7,    1.0,    1.0,   -0.2,   -1.2,   -1.5,   -2.4,   -3.7,   -4.4,   -4.0,   -4.8,   -6.0,   -6.6,   -7.2,   -6.0,  999.0,  999.0,   -5.4,   -4.6,   -2.3,   -1.8,   -1.8,   -2.2,   -3.4,   -1.8,   -1.5,   -0.0,    0.1,   -0.2,   -1.0,   -0.2,   -0.5,   -1.4,   -3.6,   -4.5,   -6.2,   -8.2,   -8.7,   -9.2,   -9.4,   -9.6,   -9.9,   -9.8,   -9.6,   -9.4,   -9.1,   -9.2,   -8.9,   -8.1,   -7.7,   -7.5,   -7.8,  999.0,  999.0,  999.0
2005/08/23 19:10,  999.0,    2.7,    4.3,    3.2,    1.1,    0.3,    1.0,    2.2,    1.7,    1.1,    1.6,    0.2,   -0.2,   -1.2,   -1.1,   -2.0,   -1.6,  999.0,   -2.9,   -3.7,   -3.8,   -4.3,  999.0,   -4.9,  999.0,  999.0,   -0.1,   -0.8,    0.2,    2.1,    1.4,   -1.1,   -1.4,   -0.7,    0.2,    0.1,   -0.6,   -0.7,   -1.1,   -1.3,   -2.8,   -5.0,   -5.6,   -7.5,   -9.4,   -9.6,  -10.4,  -11.1,  -11.3,  -10.9,  -10.1,   -9.8,   -9.3,   -9.5,   -9.4,   -9.1,   -8.4,  999.0,  999.0,  999.0,  999.0,  999.0,  999.0
2005/08/23 19:20,  999.0,    3.1,    4.6,    5.1,    3.8,    2.7,  999.0,    0.2,    1.4,    1.0,  999.0,    0.2,   -1.0,   -2.5,   -2.4,   -2.4,   -4.6,   -4.8,   -4.2,   -5.2,   -5.9,   -6.9,   -7.8,  999.0,   -3.9,   -2.8,   -2.0,   -1.1,    0.3,   -0.6,   -2.3,   -1.2,    0.7,    1.3,    2.7,    1.8,    0.0,   -1.2,   -1.4,   -2.1,   -2.8,   -4.4,   -5.1,   -6.9,   -8.7,   -9.2,   -9.9,  -10.5,  -10.9,  -11.0,  -10.5,   -9.6,   -8.9,   -7.5,  999.0,   -9.3,  999.0,  999.0,  999.0,  999.0,  999.0,  999.0,  999.0
2005/08/23 19:30,  999.0,    1.1,    5.1,    4.4,    3.1,  999.0,  999.0,    0.3,    0.9,    0.6,    0.3,   -0.2,   -0.1,   -0.2,   -2.3,   -3.6,   -3.1,   -3.4,   -4.7,   -5.1,   -5.7,   -6.5,   -6.0,   -4.7,   -5.2,   -5.8,   -5.8,   -2.3,   -0.8,    1.4,    0.9,    2.9,    2.0,    1.6,    1.0,    0.0,   -1.1,   -1.7,   -1.6,   -1.4,   -3.3,   -5.2,   -6.8,   -8.7,   -9.5,   -9.9,   -9.9,  -10.1,  -10.3,  -10.5,  -10.1,   -9.8,   -9.6,   -8.4,  999.0,  999.0,  999.0,  999.0,  999.0,  999.0,  999.0,  999.0,  999.0
2005/08/23 19:40,  999.0,  999.0,    3.2,    3.0,    3.1,    3.2,    0.2,    1.3,    1.1,    1.0,    0.9,   -0.3,   -1.4,   -2.3,   -2.5,   -3.1,   -3.3,   -3.7,   -4.8,   -5.5,   -5.9,   -6.4,   -6.2,   -2.9,   -5.4,   -4.4,   -4.2,   -2.4,    0.1,   -0.1,  999.0,    0.2,    0.2,    1.5,    0.9,    0.1,   -1.4,   -1.7,   -1.5,   -2.1,   -4.2,   -5.8,   -8.3,   -9.6,  -10.0,  -10.1,  -10.2,  -10.6,  -10.8,  -11.0,  -10.8,   -9.9,   -9.6,   -9.6,   -8.7,   -9.1,  999.0,  999.0,  999.0,  999.0,  999.0,  999.0,  999.0
2005/08/23 19:50,  999.0,  999.0,    3.6,    2.8,    2.4,    2.2,   -0.4,    1.5,    1.2,    0.7,   -0.4,   -0.8,   -1.8,   -2.2,   -2.9,   -2.8,   -3.4,   -3.6,   -4.1,   -4.7,   -4.6,   -3.8,   -2.8,  999.0,   -3.7,  999.0,  999.0,  999.0,  999.0,    0.3,   -0.7,  999.0,   -1.0,  999.0,   -2.0,   -3.7,   -3.0,   -3.7,   -3.2,   -4.0,   -5.8,   -7.3,   -8.9,   -9.5,   -9.5,   -9.6,   -9.5,   -9.5,   -9.7,   -9.7,   -9.6,   -9.2,   -9.2,   -9.3,   -8.9,   -8.8,   -9.5,   -9.4,   -8.9,   -8.8,   -9.6,   -9.6,   -9.7
2005/08/23 20:00,  999.0,    1.2,    3.4,    3.1,    2.9,    1.0,   -1.3,    0.8,    0.6,    0.2,    0.0,   -1.2,   -2.0,   -2.4,   -2.6,   -2.8,   -3.1,   -3.5,   -3.8,   -4.4,   -4.5,   -4.8,   -5.0,  999.0,  999.0,   -2.3,   -2.3,   -1.0,    0.7,    1.4,    0.1,   -1.0,   -0.3,    0.1,   -0.2,   -1.8,   -2.5,   -3.5,   -4.2,   -4.5,   -5.7,   -7.5,   -9.0,   -9.6,   -9.7,   -9.8,  -10.4,  -10.3,  -10.4,  -10.5,  -10.4,   -9.8,   -9.3,   -9.2,   -9.2,   -9.6,   -9.8,   -9.9,   -9.2,   -8.9,  -10.2,  999.0,  999.0
2005/08/23 20:10,  999.0,    3.1,    2.8,    1.5,    2.4,    0.7,   -0.8,    0.6,    0.3,   -0.1,   -0.5,   -1.0,   -1.6,   -2.5,   -2.3,   -2.3,   -3.2,   -3.6,   -4.2,   -4.2,   -4.9,   -4.5,   -4.7,   -3.7,   -4.1,   -3.6,   -1.6,   -0.3,    1.1,    1.1,  999.0,    0.4,   -0.2,   -1.2,   -1.6,   -1.6,   -1.4,   -1.7,   -3.6,   -4.2,   -5.3,   -6.6,   -8.8,   -9.2,   -9.4,   -9.4,   -9.7,  -10.1,  -10.7,  -10.7,  -10.1,  -10.1,  -10.2,   -9.6,   -9.6,   -9.7,   -9.8,  999.0,   -8.6,  999.0,  999.0,  999.0,  999.0
2005/08/23 20:20,  999.0,    3.5,    3.2,    2.7,    1.3,   -0.7,   -0.8,    0.8,    0.6,   -0.3,   -1.3,   -1.7,   -1.9,   -2.2,   -2.7,   -2.3,   -3.3,   -3.6,   -3.6,   -3.2,   -3.9,   -5.4,   -5.5,   -5.4,   -5.0,   -2.9,   -2.6,   -2.1,   -1.6,  999.0,   -3.9,   -3.5,   -3.4,   -2.6,   -3.3,   -2.8,   -2.7,   -2.5,   -2.7,   -2.5,   -3.5,   -5.7,   -7.0,   -7.8,   -8.1,   -8.2,   -8.2,   -8.4,   -8.8,   -8.7,   -8.3,   -8.5,   -8.8,   -9.0,   -8.6,   -9.1,  999.0,  999.0,  999.0,  999.0,  999.0,  999.0,  999.0
2005/08/23 20:30,  999.0,    3.0,    3.5,    2.3,    2.4,   -0.6,   -0.4,    0.9,    0.8,  999.0,   -1.9,   -2.2,  999.0,   -1.9,   -2.1,   -2.0,   -2.9,   -2.8,   -3.4,   -3.7,   -3.4,   -2.9,   -3.2,   -4.4,   -3.8,   -1.8,   -0.7,    0.4,    0.3,   -0.5,  999.0,    0.9,  999.0,   -3.1,   -3.4,   -2.3,   -2.2,   -2.4,   -3.2,   -4.0,   -6.0,   -7.4,   -8.7,   -9.4,   -9.5,   -9.7,   -9.4,   -9.2,   -8.6,   -8.1,  999.0,  999.0,  999.0,  999.0,  999.0,  999.0,  999.0,  999.0,  999.0,  999.0,  999.0,  999.0,  999.0
2005/08/23 20:40,  999.0,    2.7,    3.8,    3.3,    2.4,    1.6,   -1.0,    0.0,  999.0,  999.0,  999.0,  999.0,   -2.3,   -2.4,   -2.5,   -1.8,   -2.8,   -3.2,   -3.9,   -4.3,   -3.7,   -3.9,   -4.0,   -5.1,   -6.3,   -5.0,   -4.3,   -3.2,   -2.3,   -0.2,    0.3,   -0.8,   -0.3,   -0.4,   -1.3,   -3.2,   -2.0,   -2.8,   -3.9,   -5.2,   -6.3,   -8.2,   -9.1,   -9.4,   -9.6,   -9.8,   -9.0,   -8.5,   -8.6,   -8.6,   -9.7,   -9.6,  999.0,  999.0,  999.0,  999.0,  999.0,  999.0,  999.0,  999.0,  999.0,  999.0,  999.0
2005/08/23 20:50,  999.0,    2.4,    4.0,    2.9,    1.9,    0.6,   -0.9,    0.6,   -0.4,   -0.1,   -1.3,   -2.9,   -1.5,   -3.1,   -3.4,   -1.6,   -2.9,   -3.0,   -4.1,   -3.6,   -3.7,   -4.2,   -4.4,   -3.8,   -4.0,   -3.3,   -1.9,   -1.9,   -0.8,   -1.2,   -2.0,   -0.6,   -0.3,   -0.6,  999.0,  999.0,  999.0,   -0.7,   -3.9,   -4.8,   -5.9,   -6.7,   -8.4,   -8.9,   -8.9,   -9.5,   -9.3,   -8.9,   -9.6,   -9.3,  -10.3,  -10.7,  -11.4,  999.0,  999.0,  999.0,  999.0,  999.0,  999.0,  999.0,  999.0,  999.0,  999.0
2005/08/23 21:00,  999.0,    2.7,    3.5,    2.4,    1.8,    1.9,   -0.1,    0.1,    0.8,    0.3,   -1.9,   -1.5,   -1.4,   -1.9,   -1.6,   -2.0,   -2.9,   -3.6,   -3.1,   -4.1,   -4.3,   -4.5,   -4.8,   -4.2,   -3.6,   -3.9,   -3.5,   -1.2,   -1.8,   -1.7,  999.0,  999.0,  999.0,  999.0,  999.0,  999.0,   -0.2,   -1.3,   -2.7,   -3.8,   -3.9,   -5.0,   -6.7,   -7.8,   -8.5,   -8.8,   -9.1,   -9.1,   -9.0,   -8.9,   -9.5,  -10.1,  -10.4,   -9.4,  999.0,  999.0,  999.0,  999.0,  999.0,  999.0,  999.0,  999.0,  999.0
2005/08/23 21:10,  999.0,    3.1,    3.7,    3.1,    2.3,   -0.0,   -0.4,    0.3,   -0.2,   -2.5,   -1.9,   -2.4,   -2.3,   -1.6,   -3.7,   -2.7,   -3.4,   -3.2,   -3.9,   -4.0,   -4.0,   -3.8,   -3.8,   -3.7,   -3.6,   -4.7,   -2.9,   -1.6,   -1.2,   -1.8,  999.0,    0.1,  999.0,   -0.2,   -1.0,   -0.9,    0.0,   -0.7,   -0.6,   -2.2,   -3.1,   -4.0,   -5.8,   -7.2,   -7.7,   -8.1,   -8.9,   -9.4,   -9.3,  -10.0,   -9.7,   -9.3,   -9.7,  -10.6,  -10.4,  999.0,  999.0,  999.0,  999.0,  999.0,  999.0,  999.0,  999.0
2005/08/23 21:20,  999.0,    1.8,    3.4,    3.3,    3.2,    1.1,    0.4,    0.0,    0.9,    0.2,  999.0,   -2.6,   -2.5,  999.0,   -1.7,   -2.9,   -3.1,   -3.6,   -3.1,   -3.7,   -3.7,   -3.9,   -3.7,   -3.5,   -3.9,   -4.4,   -4.0,   -3.6,  999.0,   -2.2,   -1.4,   -0.2,    0.0,   -0.0,   -0.1,  999.0,   -0.2,   -0.4,   -1.4,   -1.9,   -3.0,   -3.9,   -5.9,   -7.2,   -7.9,   -8.3,   -8.9,   -9.3,   -9.4,   -9.5,   -9.4,   -9.4,   -9.7,   -9.9,  -10.7,  -11.0,  -11.8,  999.0,  999.0,  999.0,  999.0,  999.0,  999.0
2005/08/23 21:30,  999.0,    2.6,    3.9,    3.0,    1.8,    0.4,   -0.5,   -0.5,   -1.2,   -2.5,   -3.5,   -1.7,   -2.0,   -2.0,   -2.1,   -2.4,  999.0,   -3.2,   -3.2,   -4.4,   -3.5,   -3.7,   -3.3,   -4.2,   -3.9,   -3.3,   -2.3,   -1.9,   -0.8,   -0.6,    0.1,   -0.8,   -0.3,    0.3,   -0.1,    0.4,   -0.5,    1.4,    1.0,   -0.2,   -0.8,   -2.2,   -3.8,   -5.6,   -7.0,   -7.6,   -8.2,   -9.0,   -9.4,   -9.3,   -9.1,   -9.5,  -10.0,   -9.6,  -10.7,  -11.7,  -11.4,  -12.0,  -12.9,  -13.8,  -13.8,  -12.9,  -11.7
2005/08/23 21:40,  999.0,    2.5,    4.1,    2.9,    1.2,    1.3,    0.5,   -0.2,   -2.7,   -2.6,   -2.2,   -1.5,   -2.4,   -1.8,   -1.8,   -2.9,   -3.0,  999.0,   -3.1,   -3.1,   -4.2,   -3.0,   -3.3,   -3.2,   -2.9,   -4.5,   -3.1,   -4.4,  999.0,   -1.8,   -1.5,   -2.0,   -0.6,   -1.9,  999.0,  999.0,   -2.6,    2.1,    0.6,   -0.4,   -1.5,   -3.2,   -4.5,   -6.8,   -7.7,   -8.0,   -8.6,   -8.9,   -9.1,   -9.5,   -9.9,   -9.5,   -9.4,   -9.1,   -9.3,   -8.7,  999.0,  999.0,  999.0,  999.0,  999.0,  999.0,  999.0
2005/08/23 21:50,  999.0,    1.4,    4.2,    3.8,    3.1,    1.8,    1.4,    0.9,   -2.5,    0.4,  999.0,   -3.4,   -3.4,   -0.6,   -2.9,   -3.3,   -1.3,  999.0,   -3.9,   -3.8,   -3.9,   -3.6,   -3.5,   -4.1,   -4.1,   -4.9,   -4.5,   -3.5,   -3.2,   -3.0,   -2.3,   -0.6,   -2.0,   -2.7,   -1.9,   -0.6,   -0.4,   -0.9,   -0.9,   -1.9,   -4.0,   -5.4,   -6.2,   -7.4,   -8.0,   -8.2,   -8.8,   -9.0,   -9.3,   -9.6,   -8.9,   -8.9,   -8.5,   -8.6,   -8.6,   -8.5,   -8.7,   -8.7,  999.0,  999.0,  999.0,  999.0,  999.0
2005/08/23 22:00,  999.0,    1.3,    4.2,    3.2,    2.6,    1.1,    0.6,  999.0,   -0.4,  999.0,   -4.3,   -1.4,   -2.8,   -1.8,   -3.0,   -3.2,   -2.4,   -3.6,   -4.4,  999.0,   -4.1,  999.0,   -2.9,   -3.2,   -2.8,   -4.6,   -5.4,   -5.6,   -4.9,   -2.5,   -1.7,   -0.4,    0.2,  999.0,  999.0,  999.0,  999.0,  999.0,  999.0,   -2.3,   -3.4,   -4.5,   -5.7,   -7.0,   -8.3,   -9.2,   -9.4,   -9.5,  -10.0,   -9.9,  -10.0,  -10.0,  -10.1,  -10.2,  -10.4,  999.0,  999.0,  999.0,  999.0,  999.0,  999.0,  999.0,  999.0
2005/08/23 22:10,  999.0,    1.5,    3.9,    2.4,    2.8,   -0.7,   -0.7,    1.7,   -2.6,   -1.9,  999.0,  999.0,   -3.5,   -4.5,   -3.4,   -3.0,   -3.3,   -4.1,  999.0,   -3.2,   -2.4,   -2.4,   -2.7,   -3.2,   -4.0,   -4.8,   -4.2,   -4.3,   -2.4,   -1.7,   -2.4,   -1.5,   -0.4,   -1.2,   -0.6,    0.4,   -0.2,   -0.3,    0.7,    0.0,   -1.2,   -2.7,   -3.8,   -5.3,   -6.6,   -8.2,   -8.4,   -8.2,   -8.4,   -8.8,   -9.2,   -9.6,   -9.7,  -10.5,  -10.1,  999.0,  999.0,  999.0,  999.0,  999.0,  999.0,  999.0,  999.0
2005/08/23 22:20,  999.0,    0.8,    4.0,    3.5,    3.0,    1.2,    0.6,    0.8,   -1.9,   -1.6,   -3.0,   -2.8,   -1.7,   -2.5,   -2.4,   -2.7,   -2.1,   -2.9,   -3.4,   -2.9,   -3.2,   -2.7,   -3.4,   -3.1,   -3.4,   -2.5,   -3.6,   -2.4,   -2.4,   -2.0,   -1.9,   -1.3,   -0.4,  999.0,  999.0,  999.0,   -1.7,   -2.7,   -1.6,   -0.4,   -0.4,   -2.3,   -4.2,   -6.2,   -7.6,   -8.5,   -8.5,   -9.0,   -9.1,   -9.4,   -9.7,   -9.9,   -9.8,   -9.8,  -10.4,  -10.2,  999.0,  999.0,  999.0,  999.0,  999.0,  999.0,  999.0
2005/08/23 22:30,  999.0,    2.4,    3.2,    2.9,    3.9,    2.8,   -0.5,    0.1,   -0.9,  999.0,   -4.6,  999.0,   -2.5,  999.0,   -3.6,   -3.1,   -3.5,   -4.7,   -4.2,   -4.9,   -4.0,   -4.2,   -3.1,   -4.3,   -4.2,   -3.6,   -3.0,   -2.9,   -2.6,   -2.7,   -1.4,   -0.7,    0.4,   -0.6,  999.0,   -0.4,   -2.1,   -0.7,   -0.4,   -0.8,   -1.9,   -3.3,   -5.6,   -7.2,   -8.4,   -8.6,   -8.9,   -9.3,   -9.4,   -9.9,   -9.9,  -10.0,   -9.5,   -9.8,  999.0,  999.0,  999.0,  999.0,  999.0,  999.0,  999.0,  999.0,  999.0
2005/08/23 22:40,  999.0,    1.9,    4.0,    3.9,    3.5,    1.8,    0.4,   -0.1,   -3.2,  999.0,  999.0,   -2.5,   -0.8,   -2.0,   -1.2,   -1.7,   -3.1,   -4.0,   -3.9,   -3.9,   -3.1,   -3.0,   -2.7,   -2.2,   -2.4,   -1.8,   -2.0,   -1.8,   -1.5,   -1.0,   -0.8,   -1.5,   -0.7,   -3.0,   -0.9,  999.0,   -0.4,    0.1,   -0.5,   -1.4,   -3.1,   -5.5,   -6.6,   -7.8,   -8.4,   -8.9,   -9.4,   -9.6,  -10.1,   -9.9,  999.0,  999.0,  999.0,  -10.0,  999.0,  999.0,  999.0,  999.0,  999.0,  999.0,  999.0,  999.0,  999.0
2005/08/23 22:50,  999.0,  999.0,  999.0,    3.5,    2.4,    1.2,    1.6,  999.0,  999.0,   -3.5,   -2.2,   -3.1,   -1.8,   -1.2,   -2.2,   -2.5,   -3.0,   -3.4,   -3.4,   -1.5,   -1.8,   -3.7,   -3.9,   -4.7,   -4.4,   -3.4,   -2.3,   -1.1,   -1.3,   -1.1,   -0.2,    1.1,  999.0,   -2.0,  999.0,  999.0,  999.0,  999.0,  999.0,  999.0,   -5.1,   -6.7,   -8.4,   -9.3,  -10.1,   -9.8,  -10.1,  -10.6,  -10.9,  999.0,  999.0,  999.0,  999.0,  999.0,  999.0,  999.0,  999.0,  999.0,  999.0,  999.0,  999.0,  999.0,  999.0
2005/08/23 23:00,  999.0,   -0.4,    4.2,    4.6,    2.7,    3.2,  999.0,    2.6,   -2.9,    2.3,    0.1,   -5.3,   -1.6,   -2.0,   -2.7,   -2.4,   -2.7,    0.8,  999.0,   -5.3,   -2.8,   -2.7,   -1.9,   -1.7,   -1.8,   -2.9,   -3.0,   -2.7,   -3.1,   -3.0,   -1.4,   -0.7,    1.3,   -0.3,    0.0,    0.7,  999.0,   -1.9,  999.0,  999.0,  999.0,  999.0,   -8.5,   -9.3,   -9.9,  -10.2,  -10.7,  -10.9,   -9.9,   -9.7,   -9.0,   -9.8,   -9.6,  -10.8,   -9.6,  -10.0,  -10.0,   -9.6,   -9.8,  -10.0,   -9.9,  -10.4,  999.0
2005/08/23 23:10,  999.0,    2.5,    3.6,    3.6,    3.0,  999.0,  999.0,    3.8,  999.0,   -0.5,   -2.6,   -1.0,   -1.7,   -1.1,  999.0,   -1.6,   -2.6,   -3.8,  999.0,  999.0,   -1.8,   -2.9,   -3.5,   -1.7,   -3.1,   -3.3,   -3.1,   -3.8,   -5.5,   -4.0,   -2.7,   -2.9,  999.0,  999.0,  999.0,  999.0,  999.0,  999.0,  999.0,  999.0,  999.0,  999.0,   -9.6,   -9.7,   -9.8,  -10.2,  -10.3,  -10.3,  -10.2,  -10.5,  -10.8,  -11.0,  -10.6,  -10.2,  -10.6,  -11.0,  -11.4,   -9.7,   -9.7,   -9.1,   -8.8,  -11.2,  999.0
2005/08/23 23:20,  999.0,  999.0,    3.4,    3.6,  999.0,  999.0,  999.0,  999.0,    1.2,  999.0,   -0.2,  999.0,  999.0,  999.0,   -1.7,  999.0,   -4.1,   -3.5,   -3.2,   -3.0,   -0.7,   -1.6,   -2.8,   -1.7,   -0.7,   -0.9,   -1.6,  999.0,   -3.0,  999.0,  999.0,  999.0,  999.0,  999.0,  999.0,  999.0,  999.0,  999.0,   -1.6,   -4.1,   -6.1,   -7.5,   -8.3,   -8.8,   -8.8,   -9.3,   -9.4,   -9.4,   -9.8,  -10.4,  -10.8,  -11.0,  -11.6,  -12.2,  -12.1,  -11.4,  -11.0,  -11.1,  -11.2,  -10.9,  -11.3,  -11.3,  999.0
2005/08/23 23:30,  999.0,    1.4,  999.0,    3.5,    3.4,  999.0,    3.3,   -0.9,   -2.3,   -2.4,   -2.0,   -1.4,   -2.1,   -2.6,   -4.2,   -4.8,   -4.3,   -3.9,   -3.7,   -2.6,   -3.1,   -2.5,   -2.4,   -1.6,   -1.3,   -0.7,   -1.2,  999.0,  999.0,   -3.2,   -2.7,  999.0,   -0.9,   -1.5,   -1.6,   -1.7,   -0.8,   -0.0,   -2.1,   -4.6,   -6.3,   -7.8,   -8.6,   -9.0,   -9.3,   -9.6,   -9.7,   -9.7,   -9.9,  -10.1,  -10.7,  -10.7,  -10.7,  -10.8,  -11.4,  -11.8,  -11.5,  -11.1,  -10.6,  -11.0,  999.0,  999.0,  999.0
2005/08/23 23:40,  999.0,    0.6,    2.3,    4.4,    2.0,  999.0,  999.0,  999.0,    0.3,  999.0,    0.3,   -2.3,   -2.5,   -4.0,   -4.4,   -4.0,   -3.2,   -3.5,   -3.0,   -2.0,  999.0,  999.0,  999.0,  999.0,  999.0,  999.0,  999.0,  999.0,  999.0,  999.0,  999.0,  999.0,  999.0,  999.0,  999.0,   -1.2,    0.4,   -0.1,   -1.9,   -4.1,   -5.9,   -7.6,   -8.8,   -9.7,  -10.3,  -10.1,  -10.3,  -10.0,   -9.9,   -9.8,   -9.9,  -10.0,  -10.1,  -10.3,  -10.6,  -10.6,  -11.0,  -11.7,  -12.3,  -12.3,  -12.2,  -11.7,  -11.3
2005/08/23 23:50,  999.0,    1.1,    4.9,  999.0,    4.1,    4.3,  999.0,  999.0,   -2.1,    2.1,    2.2,    0.2,   -0.8,   -2.7,   -4.1,   -3.8,   -2.9,   -2.7,   -2.1,   -2.4,   -1.8,   -1.3,  999.0,  999.0,  999.0,  999.0,  999.0,  999.0,  999.0,  999.0,  999.0,  999.0,   -2.1,   -1.2,   -1.3,   -1.0,   -0.7,   -0.1,   -1.6,   -4.5,   -6.8,   -8.5,   -9.1,  -10.2,  -10.8,  -10.5,  -10.7,  -10.5,  -10.6,  -10.3,  -10.3,  -11.1,  -11.4,  -11.5,  -11.6,  -11.8,  -11.5,  -11.5,  -12.1,  -13.0,  -13.2,  -12.9,  -12.4
